GFSSW_sfc_wetblb_000.txt.gz
Wetbulb
55.10 55.13 55.24 55.35 55.34 55.56 55.69 55.79 56.10 56.19 56.62 56.93 56.95 57.21 57.56 58.31 57.84 58.62 54.43 57.80 61.14 66.95 67.49 64.96 64.53 64.53 64.71 62.03 62.21 61.52 53.65 51.23 52.71 53.06 53.82 57.51 56.42 59.24 60.21 57.16 57.76 58.08 56.69 59.19 62.22
54.95 55.02 55.07 55.22 55.11 55.10 55.23 55.33 55.67 55.66 55.94 56.31 56.22 56.46 57.20 57.73 56.07 54.11 61.48 65.66 67.69 67.91 62.05 62.63 61.98 63.14 60.47 59.54 59.57 56.79 53.03 52.84 56.67 56.67 54.50 56.15 56.32 57.05 56.45 56.67 56.71 56.98 58.57 59.86 60.68
55.05 55.03 54.91 54.98 55.23 54.98 54.95 55.07 55.29 55.50 55.43 55.55 55.60 56.38 57.17 57.30 54.01 53.20 67.44 67.25 67.35 67.55 60.32 62.50 63.29 62.04 58.47 59.05 58.08 56.88 53.26 55.93 56.95 58.01 56.65 55.22 55.22 57.36 55.65 54.37 56.60 55.64 56.93 58.68 58.67
55.19 55.14 55.03 54.90 55.01 54.93 54.94 54.86 54.96 54.94 54.81 54.76 55.07 56.40 57.39 56.82 45.35 59.28 68.08 68.42 68.40 63.07 58.87 57.78 59.08 58.43 56.99 55.80 58.09 54.31 57.01 57.27 57.55 58.06 55.87 53.88 55.60 55.96 56.18 56.45 58.51 58.07 58.05 58.82 59.05
55.36 55.08 55.23 55.15 54.82 54.98 55.03 54.89 55.04 54.89 54.75 54.51 54.93 56.03 56.51 51.09 50.75 58.59 67.92 67.47 63.39 58.22 56.15 55.44 55.99 57.98 55.16 56.40 57.16 56.08 56.67 57.44 57.84 57.05 55.92 55.51 55.04 56.09 55.69 58.24 58.76 58.20 57.90 57.78 59.52
55.99 56.03 55.60 55.58 55.48 55.33 55.28 55.07 55.04 55.14 54.99 54.73 55.04 55.84 54.28 46.51 55.26 56.77 58.24 62.53 59.14 56.73 55.30 56.26 55.47 57.22 55.72 55.38 55.21 57.46 57.28 56.35 56.88 56.28 56.32 54.39 55.15 56.11 56.76 58.54 57.32 57.01 57.05 57.75 58.55
54.33 55.51 55.76 55.29 55.25 55.19 55.08 54.51 54.42 55.04 54.84 54.86 55.49 55.51 51.62 49.48 56.59 58.06 57.54 58.41 61.32 58.79 55.06 56.25 57.61 56.27 56.71 54.81 58.01 56.84 53.75 54.75 55.47 55.84 54.82 56.46 53.28 53.83 57.19 58.06 57.11 57.31 57.94 58.51 59.15
53.74 53.92 54.47 55.39 55.60 55.24 55.24 54.75 54.51 54.87 54.99 55.45 55.59 54.02 47.99 56.14 57.49 55.57 56.21 56.06 56.43 58.20 59.26 59.85 59.08 56.17 55.46 57.40 55.71 53.26 53.34 49.16 53.98 55.56 55.65 55.30 49.72 55.19 57.61 57.59 57.28 57.33 57.55 58.13 59.62
53.47 53.24 53.67 53.45 54.31 55.31 54.96 54.63 54.93 54.75 55.64 55.92 53.07 50.97 46.39 58.05 54.04 56.03 56.90 54.03 58.06 58.52 58.85 58.50 56.84 55.33 54.04 50.91 50.00 51.72 47.51 48.90 51.22 55.61 54.90 54.23 51.34 55.30 57.54 57.55 57.80 57.91 58.30 58.06 59.35
51.56 53.07 53.21 53.41 53.34 54.29 54.26 54.60 54.57 55.21 55.43 56.46 53.85 49.79 53.87 51.86 53.58 56.35 56.45 55.51 53.12 54.40 53.01 54.23 53.19 51.49 51.53 49.15 43.91 47.27 47.92 49.46 49.76 53.72 54.35 53.01 52.66 55.27 56.92 56.61 57.69 58.48 58.48 58.83 59.23
50.66 51.74 52.96 53.40 53.34 53.30 52.56 53.38 51.45 51.07 50.82 50.04 50.21 48.90 52.15 56.50 57.33 53.97 56.16 53.81 53.12 51.51 47.45 51.66 48.54 46.96 49.70 51.18 50.66 50.80 49.78 49.61 52.82 54.75 53.18 52.96 54.07 55.03 56.47 56.39 56.84 57.74 58.89 59.84 59.78
51.88 50.61 51.13 52.40 52.78 53.25 51.94 48.35 51.95 52.44 46.56 52.29 53.08 51.78 53.00 54.39 50.46 52.08 55.91 50.94 49.68 46.06 48.89 48.33 47.03 50.45 52.17 52.16 50.38 50.01 49.31 49.50 52.30 53.97 52.92 52.35 52.25 54.77 55.83 56.44 57.01 56.67 57.50 59.30 60.04
52.76 51.42 50.37 51.23 52.74 50.74 49.06 49.62 55.35 55.50 45.68 48.18 52.67 53.17 53.04 53.72 50.54 50.99 52.38 51.29 48.78 45.82 46.48 45.37 48.51 51.87 51.47 50.36 49.16 50.15 49.37 49.64 49.84 52.30 53.48 52.35 50.87 53.08 55.16 56.55 56.82 57.81 58.82 59.62 60.01
53.38 52.47 50.79 51.15 48.43 51.89 51.04 54.91 56.62 54.54 39.97 43.16 47.05 50.01 53.42 54.50 49.47 54.18 54.67 52.06 49.47 46.08 47.06 47.03 50.05 50.80 50.43 49.51 51.03 47.98 52.20 51.81 51.00 49.24 45.36 52.25 44.42 51.69 53.05 54.18 55.16 55.45 57.69 58.44 60.04
53.01 52.66 51.45 49.99 49.01 48.36 51.86 54.79 54.51 51.59 30.84 48.31 47.96 55.11 52.72 51.15 51.21 51.12 54.68 52.21 48.44 47.48 47.54 45.75 48.22 48.47 50.17 50.33 52.12 50.09 53.22 52.09 51.33 49.41 48.48 48.14 45.97 48.69 53.24 52.06 53.50 54.46 56.15 58.82 60.43
52.83 52.80 51.98 48.71 48.97 50.81 52.70 55.21 51.42 37.95 30.33 45.19 51.32 48.79 48.52 49.83 50.55 52.23 51.36 53.27 52.25 49.10 49.03 47.49 51.57 51.71 51.61 53.57 53.06 53.65 51.92 51.52 50.90 48.73 43.69 47.48 46.50 46.33 49.74 51.22 52.39 53.75 55.65 58.94 59.92
52.61 52.47 51.71 51.01 45.72 52.51 53.35 49.21 36.04 31.39 44.59 44.59 47.52 48.68 47.81 47.28 48.05 49.46 47.89 47.42 46.45 43.67 44.83 47.24 47.27 51.01 53.24 50.68 53.29 52.01 50.24 43.47 41.73 41.53 41.27 48.50 46.34 48.70 53.50 53.56 52.97 53.29 56.20 59.63 60.51
52.19 51.80 51.31 51.65 50.89 51.07 48.28 40.68 29.56 37.57 39.41 49.09 49.30 48.73 46.13 48.44 47.67 48.04 47.05 45.33 49.21 47.87 45.32 43.52 41.89 48.14 52.27 51.35 49.83 50.65 50.29 43.58 38.35 39.09 42.42 49.72 45.20 48.24 53.45 54.76 54.84 55.22 57.56 60.33 60.04
50.88 50.71 49.60 51.33 51.30 49.41 41.87 30.90 32.89 37.93 43.74 42.68 45.37 43.63 46.47 48.29 48.16 47.35 47.45 46.51 48.41 50.06 45.35 44.82 44.35 50.66 51.49 53.18 52.91 50.37 47.20 50.69 46.13 47.21 43.94 46.22 49.84 53.42 54.55 53.12 54.18 55.29 58.84 59.87 59.98
49.07 47.48 46.98 52.41 51.33 46.80 37.62 31.56 37.79 42.61 42.84 42.93 39.13 44.48 41.93 46.76 46.56 46.91 47.31 49.57 48.03 50.63 53.11 49.68 45.75 50.45 50.76 53.75 53.85 52.48 52.31 45.51 46.11 39.25 38.77 43.73 45.97 47.00 50.54 52.02 55.07 56.86 58.46 60.15 60.14
48.73 40.24 47.98 52.64 51.77 41.25 32.21 33.68 38.61 43.38 43.70 41.05 40.43 40.88 42.61 42.46 46.55 46.53 46.82 49.10 50.36 50.01 52.14 51.90 51.17 49.31 51.69 50.71 49.31 49.83 48.76 49.24 49.15 46.49 41.43 40.31 44.34 54.42 53.76 55.88 57.29 57.67 59.55 59.97 59.25
44.15 35.83 50.51 50.54 37.50 36.76 33.70 38.39 40.45 40.62 43.24 42.07 42.59 41.93 41.77 43.85 43.49 44.76 47.40 49.84 52.02 52.09 49.18 52.37 51.50 47.61 48.91 52.58 53.89 52.41 50.05 50.63 45.27 44.73 46.62 45.58 45.93 56.21 56.65 56.39 58.14 58.43 59.47 59.28 59.42
40.76 42.70 50.62 47.64 32.21 32.90 38.81 37.95 39.70 39.48 39.74 39.90 40.00 41.99 44.17 42.33 40.31 46.68 49.19 52.48 52.83 51.87 51.19 52.55 48.93 46.29 47.71 51.10 52.92 50.29 51.32 51.73 52.43 52.19 47.14 42.97 45.54 56.38 56.09 56.09 57.38 59.12 58.81 58.70 59.22
42.27 36.19 43.62 45.52 42.87 37.90 35.69 36.06 35.93 42.12 41.00 40.34 40.00 41.72 40.81 40.44 44.84 44.19 47.81 52.28 52.40 52.95 54.39 54.86 50.97 48.31 45.60 48.34 51.11 49.06 50.10 50.43 49.98 46.82 46.08 46.83 48.59 52.78 53.87 54.50 56.17 59.40 59.35 58.64 59.08
43.10 38.36 41.51 35.31 37.06 37.00 36.23 36.69 34.18 33.63 41.40 41.97 39.70 39.82 39.60 38.24 41.02 43.99 44.74 45.04 49.79 54.09 54.62 54.59 47.25 51.21 50.58 50.96 50.66 49.90 49.04 49.22 48.82 49.71 46.47 48.65 49.10 52.26 55.20 55.85 56.96 60.10 59.87 58.57 58.34
38.98 39.11 41.60 38.39 39.22 36.57 35.57 35.48 34.95 36.74 38.49 37.63 37.24 40.21 40.80 38.45 39.99 39.21 42.15 44.23 44.42 47.27 52.52 55.72 48.10 51.02 47.98 50.33 50.72 48.64 49.79 49.87 49.82 49.50 49.55 50.14 50.39 55.83 57.29 57.57 57.18 59.26 59.27 58.30 58.53
45.48 46.10 41.41 37.27 37.14 35.66 36.20 36.59 36.70 38.61 40.50 41.59 40.61 39.52 38.04 40.18 44.21 45.90 46.74 47.16 47.38 45.84 47.48 53.29 50.48 48.29 46.07 49.07 49.00 46.35 49.49 49.94 50.48 51.68 51.19 48.28 52.62 55.89 55.16 55.64 57.35 59.62 59.77 59.89 59.80

GFSSW_sfc_wetblb_003.txt.gz
Wetbulb
55.26 55.44 55.51 55.54 55.55 55.54 55.56 55.66 55.89 55.98 56.04 56.28 56.45 56.69 57.02 57.68 57.58 55.24 52.20 55.49 57.75 65.36 66.71 63.54 63.53 61.96 61.09 58.90 60.31 59.71 48.47 46.83 48.59 49.34 51.58 53.80 51.73 55.72 57.05 55.19 55.77 55.92 54.64 58.83 60.48
55.79 55.58 55.51 55.50 55.38 55.73 55.39 55.39 55.53 55.60 55.61 55.75 55.80 55.85 56.64 57.50 53.09 50.76 58.01 64.29 64.53 67.19 60.67 60.36 58.56 59.61 56.92 57.36 58.11 54.87 49.28 49.70 53.94 54.21 52.79 53.01 51.57 52.51 54.36 54.22 54.29 56.53 57.48 60.19 60.03
55.65 55.91 56.35 56.20 55.44 55.83 55.44 55.41 55.55 55.48 55.43 55.49 55.34 55.65 56.62 56.89 51.21 50.82 67.66 66.58 65.94 67.29 58.08 58.18 60.59 59.37 55.33 57.56 56.89 54.98 50.02 53.33 54.25 55.99 56.13 54.42 51.66 53.45 52.40 51.89 54.44 53.38 55.13 56.69 57.17
55.68 55.97 56.29 56.28 55.94 56.02 55.48 55.19 55.17 55.33 55.38 55.38 55.33 55.69 56.59 54.22 40.39 55.08 68.11 67.69 67.89 64.26 57.66 55.15 54.98 54.71 54.38 53.48 56.84 52.36 54.41 54.98 55.08 56.24 55.43 52.58 53.20 52.29 52.93 53.98 56.96 56.86 56.74 55.81 55.21
54.27 54.80 55.27 56.42 56.19 55.94 55.93 55.80 55.27 54.85 54.96 55.07 55.16 55.74 53.25 48.11 47.96 57.66 68.55 68.02 65.61 61.47 55.35 53.15 50.84 51.34 50.48 54.64 55.20 53.45 54.48 55.86 56.40 56.28 53.39 54.13 52.64 52.79 52.55 56.27 57.72 56.41 55.99 55.21 54.57
53.64 53.71 53.96 55.39 56.02 55.86 55.54 55.41 55.26 55.12 55.33 55.25 55.24 55.81 51.31 41.97 52.34 54.55 54.69 59.98 59.44 56.22 54.35 53.56 51.34 52.94 51.09 53.32 53.18 55.12 54.53 54.94 56.00 55.39 53.51 52.51 53.12 53.77 54.27 56.94 56.26 54.59 53.93 54.21 54.67
53.33 53.58 53.92 54.24 54.75 55.45 55.62 55.13 54.68 55.21 55.36 55.44 56.02 53.63 48.06 45.87 54.41 55.22 53.99 51.86 57.74 56.34 53.09 54.27 54.54 52.53 52.09 49.75 53.48 53.25 50.25 52.38 53.81 54.11 51.69 54.14 51.02 51.34 54.87 55.60 54.60 54.18 54.13 54.25 55.03
51.90 52.65 53.29 53.07 53.69 54.29 54.86 55.28 55.13 55.65 55.76 56.11 56.39 51.48 43.28 52.09 54.40 52.77 53.37 52.40 54.51 59.86 56.21 56.02 54.93 51.92 50.62 52.14 51.85 49.49 50.44 46.74 51.01 52.74 53.65 52.03 46.71 52.43 55.20 54.10 53.71 54.64 55.13 55.09 54.93
52.84 51.90 52.17 52.71 53.07 53.51 53.97 54.23 54.49 54.64 55.81 56.28 51.98 47.83 41.30 54.42 50.38 53.36 54.70 51.59 53.05 56.06 57.58 59.13 53.91 50.05 50.11 47.01 44.83 47.05 42.66 44.91 48.52 53.27 52.66 50.97 48.52 53.06 54.97 54.08 53.15 54.17 54.57 54.81 54.13
53.45 52.91 51.79 51.60 52.25 53.41 53.33 53.33 53.24 53.91 54.07 54.45 52.58 44.11 47.53 47.89 50.79 53.43 54.48 54.75 51.75 52.62 51.59 50.94 48.93 46.58 46.46 45.47 38.96 41.69 43.37 46.88 46.96 51.06 51.34 50.01 49.83 52.21 53.87 53.53 52.91 52.84 54.23 54.91 54.57
53.69 53.37 52.60 51.81 51.50 52.54 51.12 47.65 46.23 47.07 48.62 45.76 45.73 44.72 49.58 53.32 56.83 52.61 55.15 52.87 51.98 49.38 46.80 49.31 41.83 41.69 45.35 47.26 48.17 46.98 46.16 46.26 49.59 52.23 50.51 49.74 50.46 51.23 53.06 52.55 51.23 52.02 52.88 54.28 54.13
53.10 53.23 52.81 52.38 51.39 51.96 49.55 42.88 46.37 47.12 41.57 48.84 48.98 48.04 49.75 51.74 47.60 52.99 53.93 49.32 47.19 43.51 45.60 44.13 40.72 46.17 49.17 49.09 48.54 47.67 45.39 45.02 48.78 51.71 50.86 50.28 49.26 51.45 52.85 51.99 52.17 52.43 52.29 52.08 53.20
53.02 53.37 53.14 52.13 51.59 48.38 45.47 45.10 49.91 48.87 41.15 45.26 48.91 48.86 49.22 51.43 47.16 49.13 51.62 49.69 45.89 43.29 43.47 40.91 44.49 48.77 48.77 47.21 46.58 47.13 45.49 45.33 45.76 49.98 51.08 47.98 45.47 49.06 52.32 52.77 53.27 53.68 53.14 54.01 53.72
52.72 52.89 53.01 52.22 46.03 47.48 47.71 51.58 52.69 50.51 34.17 38.28 43.74 47.10 51.04 51.50 47.65 52.18 53.48 49.62 46.47 42.98 43.95 42.40 46.69 47.30 46.98 46.30 47.47 43.79 49.66 48.73 47.90 46.87 40.72 48.29 36.36 45.15 48.85 49.68 51.50 51.74 51.72 53.02 53.84
52.81 52.84 52.95 51.14 43.46 41.64 47.80 50.45 52.18 47.83 22.21 41.90 43.36 51.84 49.99 48.27 49.88 49.84 53.10 49.43 45.07 44.88 44.62 41.86 43.91 44.51 44.55 46.99 49.12 46.48 50.47 49.09 48.99 46.53 42.59 43.41 38.55 42.13 48.04 47.71 49.74 49.36 52.22 53.37 53.96
52.71 52.81 52.63 49.54 46.58 44.62 48.95 50.86 47.78 32.02 22.10 39.41 46.72 45.21 44.89 48.21 49.31 51.23 49.14 51.06 49.27 45.86 45.91 44.58 48.10 46.57 45.54 48.52 50.65 51.50 49.05 48.74 48.06 43.68 35.32 42.03 40.92 40.87 45.09 47.94 48.59 50.15 52.14 54.43 53.73
52.53 52.39 51.37 50.24 43.24 48.96 49.32 45.81 32.55 25.76 39.83 39.37 43.19 44.86 44.31 44.05 46.64 48.20 45.05 43.98 42.04 39.36 39.98 43.93 44.03 47.01 48.29 45.91 48.55 49.51 43.96 36.99 32.36 32.05 32.15 44.35 41.40 42.95 48.25 50.71 49.90 50.97 52.45 53.52 54.67
52.09 51.89 50.52 49.89 49.78 48.39 46.50 37.42 25.50 33.65 34.05 40.74 41.32 42.88 42.11 45.00 44.77 46.14 44.87 41.23 44.54 43.64 40.23 38.61 37.23 44.15 47.34 45.52 44.96 45.68 44.33 36.77 29.99 31.27 36.42 44.92 39.47 44.37 51.12 51.62 51.90 54.11 54.07 54.43 53.48
50.87 47.68 47.36 48.66 49.85 47.84 40.19 29.42 28.27 33.57 38.43 38.86 39.16 37.47 39.84 45.01 45.18 44.65 44.02 42.19 44.12 45.07 39.24 38.96 39.60 47.17 47.53 47.83 47.64 45.18 42.64 46.36 39.85 40.14 36.19 40.66 45.49 48.99 49.82 49.62 50.39 53.82 54.24 52.61 52.85
46.31 45.78 44.76 49.59 50.04 45.14 35.81 30.79 32.87 39.43 40.40 39.72 33.21 37.45 33.88 38.26 39.81 42.49 42.88 46.36 44.71 46.77 47.24 43.09 38.02 46.09 47.22 48.10 48.22 47.25 48.94 40.68 37.85 31.04 28.98 38.72 40.92 41.98 45.61 47.39 49.60 53.02 52.44 52.68 53.37
44.98 40.77 45.42 49.29 48.60 39.85 30.31 31.14 35.84 40.43 40.52 37.07 35.10 34.80 35.99 36.14 39.21 39.86 42.66 46.96 48.15 46.96 47.29 46.03 42.48 43.69 46.35 44.19 43.24 45.14 43.79 42.19 40.87 38.45 32.02 30.77 37.73 47.20 47.00 49.54 51.55 53.20 53.90 53.43 53.70
43.70 34.99 48.66 48.39 37.24 35.53 33.19 34.14 39.51 38.41 41.25 39.00 38.85 37.79 36.27 37.20 37.04 37.83 40.57 45.71 49.82 48.53 44.13 46.46 42.27 39.76 44.13 47.94 48.97 48.06 45.21 43.02 39.25 36.28 39.47 38.63 38.91 50.38 51.70 52.55 53.37 54.71 54.97 53.38 53.63
39.49 39.42 47.44 45.66 31.36 31.91 34.83 35.44 37.94 37.17 37.55 37.66 37.15 38.92 39.43 36.16 34.53 39.19 43.13 48.61 49.10 47.64 45.75 46.54 42.48 37.17 40.46 44.53 47.68 46.91 47.47 46.17 43.33 42.38 39.25 37.01 39.04 50.86 52.01 53.93 55.72 54.36 54.95 54.60 53.30
39.43 32.70 39.38 42.61 40.03 34.91 33.44 32.93 32.55 39.31 38.26 38.99 38.12 39.65 37.06 36.35 39.66 37.62 40.72 45.73 46.19 49.07 52.63 50.72 42.69 40.97 38.67 41.95 46.48 44.69 46.74 46.95 43.84 39.28 40.62 42.83 43.48 47.40 49.53 51.41 54.04 54.18 54.22 54.26 53.77
39.95 34.96 39.85 32.07 33.51 35.03 35.35 33.87 31.73 31.32 36.87 38.50 36.04 37.41 36.27 33.29 35.40 36.53 39.14 40.67 44.20 49.27 44.59 47.62 41.66 44.64 45.38 47.46 48.26 47.65 47.21 46.97 44.72 44.29 42.20 43.65 44.58 48.32 49.31 50.01 53.90 54.78 54.30 54.40 53.73
37.19 36.04 38.39 34.80 36.72 34.57 34.62 32.67 32.64 34.43 35.48 34.02 34.40 36.89 37.77 35.58 35.92 34.36 36.30 36.18 37.73 41.73 39.48 44.45 42.20 44.68 44.09 47.76 47.43 46.72 48.03 47.75 47.44 46.39 45.75 46.34 45.89 50.75 52.05 52.24 54.24 54.88 54.78 54.31 54.57
43.52 44.28 39.89 35.69 33.70 32.86 32.89 34.25 35.15 36.94 38.29 39.23 38.46 37.37 36.51 38.39 40.79 41.53 40.99 40.90 40.14 38.56 37.85 40.14 42.67 42.39 39.25 45.83 45.92 43.03 46.95 47.34 47.79 47.80 47.13 43.58 46.31 51.00 50.97 52.36 54.62 54.62 55.11 55.01 55.34

GFSSW_sfc_wetblb_006.txt.gz
Wetbulb
56.34 56.13 56.07 56.09 56.18 55.84 55.68 55.80 55.90 55.99 56.08 56.19 56.24 56.28 56.45 56.90 57.05 53.09 47.88 53.51 56.63 65.47 66.72 64.55 63.32 61.04 59.12 56.04 57.87 56.48 46.25 44.28 45.97 47.71 49.51 54.18 49.57 53.96 55.27 53.37 54.09 54.44 54.71 57.71 59.30
56.14 56.17 56.28 56.29 56.63 56.37 55.75 55.53 55.49 55.70 55.95 56.00 56.02 55.93 56.11 56.82 52.88 49.29 56.55 62.71 63.65 66.75 60.55 59.80 57.47 59.06 53.83 54.70 55.50 52.21 46.29 49.26 53.35 52.21 50.42 53.58 51.72 53.15 51.56 51.62 52.45 55.15 57.69 58.80 58.81
54.88 55.26 55.87 56.38 56.25 56.39 56.20 56.00 55.43 55.42 55.82 55.50 55.68 55.75 56.10 55.95 49.42 49.53 64.00 62.90 64.10 66.22 56.76 58.84 59.96 57.08 52.09 53.53 53.91 52.21 49.60 53.60 54.31 55.03 54.64 53.68 53.81 54.68 51.08 49.25 51.40 52.15 55.71 57.03 56.54
54.02 54.04 54.23 54.57 55.22 55.99 56.53 55.90 55.47 55.59 55.28 55.06 55.14 55.54 56.18 53.09 37.00 49.94 67.58 67.93 66.45 63.04 57.33 53.43 52.05 51.96 50.66 50.71 55.06 49.28 54.42 55.22 55.42 56.21 54.49 53.18 55.23 53.74 52.11 51.77 54.05 55.38 57.44 56.46 55.27
52.99 53.74 53.65 53.63 53.90 54.75 56.03 56.14 55.61 55.34 55.14 55.18 55.33 55.64 51.80 47.58 44.97 51.66 66.24 66.74 65.20 59.99 55.75 52.05 49.25 49.22 47.92 52.19 53.34 51.70 53.85 55.45 55.93 55.18 54.80 55.41 53.45 53.00 52.13 54.91 55.54 55.69 56.15 55.82 55.44
51.65 51.62 52.45 53.36 53.25 53.59 54.74 54.98 55.53 55.49 55.35 55.23 55.52 55.78 49.42 37.75 50.20 53.06 53.28 52.52 56.46 57.17 55.09 51.95 50.04 50.79 46.91 49.76 50.05 53.83 54.34 54.45 55.23 54.77 55.12 53.63 53.85 52.27 53.70 55.56 54.67 53.65 53.91 54.20 53.82
53.12 52.31 51.48 51.59 52.65 53.78 53.96 53.87 53.98 55.10 54.95 55.09 56.10 53.71 47.05 42.70 50.71 52.48 50.35 49.59 54.72 56.18 52.63 54.38 53.43 50.27 48.36 46.29 50.12 51.10 49.54 52.57 53.22 52.24 51.42 53.31 49.95 50.44 53.95 54.36 53.05 52.22 52.21 53.53 54.24
53.96 53.50 52.82 51.95 51.44 52.54 53.61 54.00 53.83 53.89 54.12 54.75 56.20 51.75 43.07 51.02 51.57 48.94 49.06 48.37 51.19 52.23 54.28 54.16 54.42 50.05 46.95 48.18 48.32 45.73 44.22 41.64 48.57 50.75 52.06 50.12 45.95 51.91 53.87 52.88 52.49 52.88 52.34 52.59 52.49
53.94 53.85 53.38 53.03 52.24 51.40 52.58 53.26 53.18 53.35 53.75 54.29 51.23 48.41 39.57 52.16 48.17 49.63 51.63 48.77 49.89 52.02 53.70 56.39 51.14 47.57 47.04 44.45 41.50 42.37 40.03 42.11 44.95 50.75 51.12 49.47 47.61 52.42 54.25 52.74 52.23 52.16 52.59 53.39 53.05
53.36 53.40 53.65 53.36 52.80 52.05 51.68 52.23 52.28 51.82 51.49 52.50 52.27 44.38 45.41 43.80 48.71 50.87 49.41 51.59 49.06 49.74 49.52 51.22 48.76 43.55 42.18 40.13 36.19 40.03 39.97 43.04 44.12 48.81 49.52 48.27 48.02 51.51 53.14 52.91 52.31 51.80 52.63 53.01 52.36
52.50 52.84 53.07 53.65 53.17 52.41 49.42 45.47 43.64 45.90 46.98 43.91 43.55 42.60 48.23 50.53 52.41 50.55 51.57 49.02 50.11 47.79 42.56 48.09 43.42 39.96 43.29 44.99 45.91 44.86 43.11 42.58 46.67 49.76 47.82 47.58 48.37 50.69 52.19 51.15 51.31 50.43 50.92 51.93 51.82
52.47 52.32 52.55 53.09 53.15 52.68 46.91 41.34 42.75 45.31 37.75 45.60 47.31 46.92 48.32 49.41 44.85 48.91 53.11 46.31 44.51 41.41 44.78 43.69 40.04 44.96 47.53 47.35 45.00 44.08 43.24 43.06 46.46 49.08 47.04 46.99 46.96 50.66 51.43 50.52 50.27 50.87 50.75 50.52 51.25
52.62 52.95 52.64 52.82 52.86 46.94 43.58 44.27 48.12 48.29 38.67 42.48 46.49 46.40 47.00 48.91 44.80 45.89 50.90 48.55 43.49 41.76 42.34 40.54 45.03 48.08 45.90 44.46 43.90 43.50 42.43 43.96 44.12 47.68 48.59 46.16 44.75 46.39 50.68 51.31 51.86 51.55 51.42 51.87 52.30
52.34 52.63 52.71 52.82 45.44 43.04 40.84 47.67 47.82 49.69 32.57 36.59 42.03 45.83 48.05 48.39 44.83 50.36 51.38 49.09 45.67 40.95 43.22 41.60 46.28 46.09 44.09 42.45 44.94 40.65 47.17 47.05 46.68 44.48 38.50 46.07 36.22 42.28 47.03 47.77 49.37 49.96 49.68 50.79 52.31
52.26 52.30 52.37 52.10 43.13 41.34 43.00 45.19 47.33 45.15 17.04 38.64 40.80 50.31 48.25 45.05 48.03 47.94 51.52 48.36 43.61 42.84 43.37 40.58 42.63 42.39 41.46 42.69 46.09 43.70 47.63 46.45 46.48 44.19 41.09 42.83 37.36 40.80 45.53 45.89 48.34 49.34 49.60 50.35 52.37
52.16 52.03 51.97 48.87 47.51 46.18 47.37 45.71 44.05 29.90 20.21 34.81 43.70 42.27 42.20 44.57 46.82 49.25 47.96 49.29 48.58 44.47 43.63 42.60 46.29 44.45 43.49 46.29 47.11 48.70 46.29 45.34 44.98 42.48 36.18 41.78 39.84 41.83 42.47 46.39 47.84 48.75 50.76 50.82 51.05
51.72 51.50 50.63 49.28 41.98 45.82 46.50 43.87 30.78 25.08 37.48 35.78 36.71 38.85 39.00 41.38 43.31 46.07 43.56 41.78 39.61 37.06 37.73 41.99 41.81 44.99 46.28 42.84 45.82 45.91 41.25 33.91 29.61 32.22 33.82 41.78 39.20 41.77 46.20 48.60 49.50 48.18 49.88 50.38 51.72
51.20 50.81 48.82 48.83 47.14 47.18 42.52 38.04 26.46 31.16 32.12 38.80 38.22 38.61 37.41 41.43 42.14 43.51 42.24 39.68 42.93 41.52 38.48 36.42 34.82 42.25 46.00 43.51 41.11 41.48 40.27 36.10 28.92 29.51 34.20 42.42 37.20 42.36 48.39 49.98 50.72 50.94 51.24 51.53 51.06
50.22 44.47 43.48 45.68 48.29 44.41 39.65 28.50 25.71 31.67 36.72 34.94 36.41 34.26 34.39 37.59 37.92 41.61 41.57 40.30 42.68 42.80 37.22 36.64 37.19 45.89 46.12 46.16 44.69 40.95 39.27 43.76 37.61 37.90 34.59 37.45 42.17 47.52 48.63 48.41 50.51 50.70 51.48 50.24 51.04
45.16 40.87 40.84 46.23 46.87 44.11 35.31 29.57 31.54 37.38 37.83 36.80 30.51 34.42 29.66 33.10 34.31 35.51 39.09 44.53 42.78 45.02 43.52 40.02 35.66 44.31 45.41 45.97 45.48 42.83 44.72 38.35 35.72 31.15 28.94 35.29 38.08 39.39 43.60 46.20 49.83 49.60 49.37 49.70 51.18
40.05 36.58 41.95 47.21 46.98 39.85 28.73 29.01 33.35 38.40 39.31 35.36 33.05 31.98 32.70 32.27 34.14 34.43 36.93 43.26 45.10 44.63 45.19 42.13 38.68 40.46 44.19 41.23 40.34 40.29 39.64 40.49 40.03 37.05 32.16 28.87 34.95 43.94 45.73 46.07 49.63 50.06 50.86 50.82 51.89
38.00 31.44 44.14 47.99 36.25 35.61 30.99 32.76 37.42 36.32 39.11 36.93 37.03 35.72 34.34 34.27 32.79 33.87 35.93 40.81 44.17 42.55 40.48 43.60 37.66 35.94 39.38 43.82 45.90 43.43 41.36 41.61 38.65 34.39 36.12 35.51 37.16 46.90 47.54 48.25 51.80 50.64 52.03 51.69 52.94
34.47 34.43 43.93 45.53 27.52 31.66 33.61 34.14 36.17 35.35 35.80 36.08 35.14 37.29 38.48 35.13 30.87 36.59 39.14 43.53 44.27 41.50 40.05 43.22 38.97 33.51 36.70 39.44 44.24 41.35 43.76 42.79 39.79 38.42 36.47 34.80 35.96 48.88 49.72 50.99 52.64 51.13 51.29 51.71 51.76
34.54 29.35 37.49 38.75 39.72 34.12 32.60 32.30 32.23 37.86 35.52 37.32 36.18 37.59 36.16 35.01 36.88 34.68 35.94 41.26 42.71 42.15 46.51 43.18 39.09 38.10 34.45 38.80 42.01 39.83 42.81 45.00 41.00 35.45 36.47 39.27 40.64 45.25 48.70 51.12 51.42 51.95 51.82 51.92 53.08
34.54 30.96 36.24 27.32 29.92 32.45 31.83 32.79 30.92 30.77 35.69 35.90 33.63 35.86 34.38 32.13 34.26 33.88 36.80 37.77 40.34 43.32 40.45 37.24 37.74 40.45 41.74 43.37 44.56 43.84 43.72 45.14 43.54 42.36 39.96 40.98 42.31 45.36 48.21 51.99 52.92 53.03 52.10 52.09 52.61
36.06 33.67 36.71 34.63 33.24 30.84 32.07 30.47 31.38 33.49 34.29 33.44 31.68 35.64 36.24 33.03 34.91 33.59 35.89 35.48 35.21 38.94 36.81 37.11 33.86 41.30 39.51 42.98 43.19 41.94 45.36 46.21 46.03 44.02 43.22 44.15 43.65 48.59 51.78 53.07 51.80 52.44 52.52 52.23 52.97
40.32 39.62 38.45 34.88 31.07 29.19 30.09 33.88 33.89 36.09 36.90 37.69 37.01 34.64 32.86 36.77 40.41 40.89 41.20 39.72 39.15 36.14 34.61 33.82 35.59 36.86 36.62 42.36 41.86 38.21 43.40 45.91 45.82 46.92 45.58 42.13 44.19 47.69 48.12 51.97 52.95 52.18 53.36 53.18 53.57

GFSSW_sfc_wetblb_009.txt.gz
Wetbulb
55.71 55.91 55.99 56.28 56.29 56.12 55.99 55.83 55.70 55.84 56.00 56.31 56.49 56.35 56.34 56.42 56.40 50.86 46.09 53.01 55.62 63.93 66.88 65.12 61.84 60.21 57.63 55.06 56.25 53.98 45.29 43.05 45.16 45.74 48.01 51.01 49.04 53.73 54.79 51.94 53.04 53.43 54.67 56.87 58.18
54.50 54.63 54.71 55.14 55.69 56.47 56.11 55.85 55.88 55.63 55.73 55.95 55.77 55.81 56.14 56.49 52.01 48.44 55.91 61.89 63.40 65.75 60.37 59.97 57.57 57.35 53.00 53.43 53.64 50.96 45.01 46.15 50.91 50.57 48.91 51.36 51.78 53.92 51.98 52.61 50.56 52.67 56.35 58.34 57.54
53.54 54.08 54.15 54.22 54.28 54.69 54.93 55.50 56.03 55.90 55.70 55.68 55.53 55.57 56.10 55.48 46.57 45.45 62.69 62.70 62.38 65.56 56.82 59.85 58.82 56.51 51.37 51.73 52.55 50.62 47.85 52.08 52.36 53.60 52.72 51.80 52.86 55.90 52.58 51.24 53.30 51.59 52.98 55.42 55.17
52.45 52.42 52.86 53.51 53.76 53.72 53.63 54.21 55.15 55.95 55.81 55.56 55.40 55.58 56.29 51.86 35.93 46.78 66.48 67.81 67.02 61.92 54.78 53.73 55.23 51.68 49.17 49.20 53.46 47.42 52.29 53.84 53.77 55.02 53.15 52.58 55.15 53.43 53.94 53.62 56.21 55.22 55.36 55.31 53.96
53.48 53.43 52.61 51.97 52.28 53.14 53.56 53.52 53.93 54.45 55.12 55.26 55.31 55.52 51.58 46.25 42.47 49.40 65.28 64.93 62.93 58.26 52.84 50.19 48.37 50.35 48.02 49.82 50.94 49.01 51.69 53.67 54.66 54.12 54.45 55.02 52.92 52.94 53.74 56.33 57.19 54.29 55.49 55.27 54.96
53.84 53.77 53.48 53.23 52.72 51.90 53.01 53.80 53.68 53.74 53.93 54.56 54.99 55.53 48.59 37.25 48.92 52.41 51.44 50.56 50.94 55.22 54.12 50.52 49.13 49.95 45.65 47.48 47.31 51.21 51.90 52.79 53.94 54.17 54.44 52.86 53.27 54.25 55.15 57.01 55.66 53.55 53.51 54.75 55.31
54.11 54.13 53.84 53.72 53.40 53.06 52.61 52.60 53.28 53.70 53.38 53.82 54.59 52.10 46.96 44.14 50.11 50.47 48.78 47.96 49.54 52.21 52.88 54.29 52.98 50.16 47.59 44.56 47.46 48.02 45.11 48.18 50.43 52.31 51.92 53.06 49.48 50.20 53.88 54.15 52.85 53.02 52.06 53.53 54.98
53.62 53.66 53.39 53.43 54.09 53.64 53.44 52.91 52.35 51.97 53.10 53.75 54.35 50.86 43.02 51.79 52.94 50.75 50.77 47.38 48.14 49.23 52.13 53.43 54.93 50.06 45.75 46.30 46.34 43.13 42.15 39.75 47.23 50.18 51.99 49.21 44.74 50.95 53.46 52.16 51.77 52.62 52.12 51.89 53.05
53.43 53.20 52.89 52.77 52.98 53.76 53.84 53.12 52.54 51.94 52.50 53.24 48.81 47.27 40.94 51.94 48.23 50.74 49.50 45.80 46.57 47.01 48.78 52.96 50.87 46.43 45.15 42.78 39.08 39.15 38.00 39.32 43.78 48.81 48.19 46.85 44.87 51.08 52.72 51.21 50.53 51.50 51.97 50.83 51.51
53.02 52.98 53.02 52.48 52.81 53.39 53.37 52.63 51.70 51.14 50.12 50.58 49.58 43.60 44.98 43.10 47.13 48.99 48.50 48.33 46.95 46.17 46.31 46.39 45.59 41.62 39.26 38.34 33.79 36.56 36.79 41.20 41.59 45.49 46.67 45.85 45.67 50.20 52.28 51.59 50.40 51.66 52.70 51.52 51.96
52.44 52.62 52.60 52.64 52.85 52.84 51.03 43.77 39.22 43.46 45.78 41.88 41.78 40.98 45.75 49.41 51.45 49.42 48.61 45.80 47.90 45.52 39.69 44.90 40.83 38.93 41.89 43.10 43.00 42.30 40.40 40.10 43.60 47.02 45.91 44.72 45.30 48.57 51.01 49.54 50.24 51.01 51.74 50.76 51.31
52.33 52.04 52.14 52.44 52.48 52.99 47.57 40.02 43.13 45.36 38.12 44.45 44.34 45.70 48.25 49.71 43.44 47.06 49.36 43.20 42.81 38.29 42.44 41.84 38.63 44.97 46.50 45.10 42.81 42.12 40.11 40.52 44.76 47.31 44.90 44.59 44.49 47.80 49.19 49.51 50.45 51.44 50.27 49.61 49.68
52.45 52.05 52.06 52.15 52.54 46.41 41.53 43.37 49.00 47.75 38.48 40.70 44.01 43.20 43.97 46.75 43.51 44.34 47.93 45.75 40.55 38.70 39.77 38.07 41.61 47.73 46.85 43.92 42.69 41.65 40.01 40.99 41.62 45.51 46.14 44.54 42.69 45.66 49.11 49.49 50.49 50.14 49.56 49.94 50.80
52.19 52.25 52.16 52.19 45.49 41.99 41.57 46.25 47.03 46.30 30.99 33.45 40.49 43.24 45.63 45.55 41.18 48.85 49.62 46.96 43.09 37.41 40.69 39.86 44.23 44.39 44.25 42.29 43.08 38.94 45.28 44.62 43.20 40.96 37.16 43.69 33.46 41.50 45.01 46.98 48.00 49.07 48.57 49.73 50.35
52.11 51.70 52.02 51.52 45.92 42.99 43.80 46.15 48.57 45.15 15.33 36.59 39.72 48.71 46.87 42.03 44.28 43.78 49.62 46.72 41.92 39.89 40.02 38.38 41.32 41.15 41.36 42.33 44.87 41.99 46.53 44.71 43.59 40.38 38.02 41.20 35.80 39.56 43.30 44.65 46.22 47.93 47.99 48.01 49.57
51.80 51.59 51.42 47.07 45.72 45.80 47.18 46.39 44.32 32.66 19.44 33.96 40.73 38.73 39.29 42.54 43.21 46.48 45.36 47.18 46.80 42.15 41.17 40.07 45.71 43.97 43.36 46.51 46.46 46.18 42.82 41.90 40.83 38.05 32.59 39.76 37.38 38.94 41.46 44.28 46.14 48.00 48.97 49.26 49.05
51.58 51.12 49.64 48.61 41.22 44.45 45.71 41.39 27.85 24.44 35.85 33.16 33.97 37.57 37.27 37.08 40.01 41.91 41.61 39.35 38.28 34.44 35.49 39.07 40.43 43.75 44.95 42.06 43.55 42.58 37.55 30.07 26.53 29.45 30.61 40.17 36.98 41.15 45.21 47.20 48.29 48.71 48.24 48.40 49.69
51.22 50.45 48.71 47.85 46.12 46.24 41.79 34.69 22.87 30.41 31.42 37.64 35.94 37.48 34.37 36.54 36.08 40.00 39.52 36.86 41.48 40.38 37.05 34.35 32.64 40.71 44.64 42.20 39.65 40.28 39.90 32.07 26.58 27.47 32.06 40.22 36.09 41.56 47.09 49.48 49.73 49.79 48.44 49.20 49.48
49.40 44.00 42.85 44.02 47.25 44.63 38.07 26.92 25.10 30.29 35.04 33.59 34.68 32.41 32.32 35.16 35.17 35.55 38.37 38.23 40.46 41.68 35.29 34.88 35.48 43.79 44.43 44.76 43.54 39.51 37.03 42.21 34.74 35.44 32.64 35.81 40.38 45.28 46.90 47.03 48.40 48.19 49.06 48.20 49.50
44.68 42.79 39.53 44.55 46.59 44.84 35.00 25.66 30.14 36.27 35.74 35.20 28.84 33.46 28.30 31.29 32.33 33.05 35.25 39.80 41.24 43.28 41.44 38.10 33.09 41.91 43.73 44.76 43.81 39.84 41.80 33.77 31.92 26.60 25.87 33.80 36.18 38.49 42.86 45.20 47.62 47.77 47.38 47.87 49.65
38.71 36.56 41.14 48.39 45.68 39.76 28.01 28.65 32.21 37.12 37.27 33.67 31.38 30.14 31.67 31.44 32.83 32.23 34.57 39.74 41.44 39.78 41.73 37.70 36.06 37.75 42.15 39.67 38.78 36.73 38.10 35.76 37.42 35.05 29.18 27.32 33.98 42.68 44.58 46.07 47.48 47.67 48.16 48.58 50.10
36.07 28.86 43.03 47.64 35.86 33.47 29.72 32.85 37.17 35.57 38.16 35.87 35.76 34.11 32.90 34.27 32.62 31.27 32.89 37.61 42.93 40.94 36.45 39.04 35.35 33.93 37.25 41.47 44.51 42.42 39.50 39.24 34.54 31.96 34.03 34.53 37.77 45.86 45.01 45.92 48.64 48.33 49.16 48.80 50.63
35.09 32.66 42.03 45.30 30.44 29.44 33.06 33.66 35.74 34.37 34.85 34.56 34.18 35.59 36.93 33.29 30.59 33.65 35.47 40.80 42.53 39.28 36.26 38.28 33.96 29.07 32.86 37.66 40.42 38.90 40.49 40.20 38.32 36.30 34.38 32.89 37.05 46.45 46.50 45.60 49.74 48.28 48.99 50.02 50.45
36.45 28.43 34.79 38.12 36.71 33.58 31.20 31.24 31.41 37.34 35.11 35.27 34.07 35.93 34.36 33.39 36.14 33.18 33.83 38.26 41.10 39.96 44.69 39.72 34.44 34.65 31.87 34.99 39.20 37.06 39.69 40.38 39.69 35.70 36.54 37.86 38.38 43.13 45.72 46.38 48.24 48.63 49.19 49.92 51.36
33.23 29.50 35.91 28.96 29.41 31.26 29.80 31.40 30.08 30.39 34.92 35.10 31.90 33.98 33.08 29.58 32.45 33.16 36.47 37.54 39.68 41.49 39.62 34.62 29.18 36.75 39.56 40.67 40.98 40.70 40.65 40.69 39.33 40.49 37.73 40.42 40.06 43.15 47.03 47.93 50.00 49.89 49.09 50.02 50.74
32.01 35.00 37.92 34.23 34.58 30.79 30.00 29.99 31.46 33.54 34.22 31.84 32.09 34.37 34.72 31.59 33.71 31.70 35.06 36.04 34.36 37.26 35.87 34.37 28.34 35.49 37.22 40.70 40.61 39.01 41.17 41.70 42.44 42.24 42.03 41.51 41.13 45.33 48.83 50.67 50.42 50.43 50.41 50.71 51.48
41.62 41.13 37.37 33.96 32.14 26.51 27.16 32.13 31.80 34.90 36.95 37.37 35.78 33.79 32.39 35.16 38.32 38.90 40.13 39.80 38.67 35.81 34.27 32.12 31.43 30.82 31.26 39.97 38.65 34.74 39.76 41.08 42.39 44.28 44.00 39.40 42.71 45.48 46.57 51.04 51.27 50.12 51.36 51.63 52.45

GFSSW_sfc_wetblb_012.txt.gz
Wetbulb
53.90 53.65 53.99 54.18 54.38 54.78 55.43 55.78 56.14 56.05 56.26 56.16 56.23 56.00 56.18 56.42 55.81 50.02 45.59 52.36 55.28 64.37 66.66 63.41 60.60 59.86 58.30 53.63 54.40 52.90 44.85 41.95 43.54 44.41 46.49 47.96 47.68 51.71 54.21 51.82 51.52 53.03 52.55 55.07 57.10
53.01 53.04 53.27 53.87 53.39 53.31 54.10 54.38 54.90 55.52 55.96 56.20 56.10 55.99 56.00 56.56 51.19 47.56 54.27 61.50 63.32 66.88 60.93 58.71 56.30 57.33 51.63 51.94 52.81 49.82 44.15 45.28 49.81 49.02 48.20 48.45 49.72 51.90 51.46 52.69 51.27 52.52 54.10 55.98 56.15
53.66 53.56 53.41 52.72 52.57 52.92 53.60 53.78 53.78 54.29 55.46 56.07 55.94 55.70 55.82 55.25 44.34 43.51 60.73 60.34 62.66 64.56 57.28 59.19 58.83 55.97 50.48 50.40 51.28 49.58 47.46 51.45 51.18 52.03 50.50 51.14 51.73 53.01 52.03 51.21 53.90 52.06 54.59 54.30 54.49
54.25 53.99 53.95 53.51 53.63 52.86 52.21 52.60 53.89 53.93 53.99 54.60 55.16 55.33 56.06 50.73 34.64 47.06 66.80 66.76 66.56 61.14 53.60 56.69 56.22 51.32 48.00 48.06 52.28 46.14 50.91 52.93 53.17 53.38 51.01 51.67 53.12 53.16 53.66 53.91 56.76 56.00 55.57 54.22 53.49
53.38 53.86 53.94 53.92 53.92 53.55 53.36 52.88 52.48 53.20 53.57 53.64 54.19 54.89 51.73 44.21 41.48 47.83 61.56 58.74 59.33 57.40 51.15 52.17 52.67 50.91 46.42 47.89 50.57 47.50 50.59 52.24 53.07 52.31 52.86 53.60 52.05 52.71 53.45 56.63 57.37 56.81 54.72 52.69 53.54
53.10 53.21 53.21 53.17 53.40 53.62 54.15 53.57 52.95 52.23 52.16 53.29 53.50 54.25 47.90 39.47 50.10 49.23 52.26 49.21 50.43 54.77 52.89 49.53 49.55 53.05 48.11 47.75 47.70 49.24 50.38 51.12 51.08 51.96 53.25 51.73 51.85 53.24 54.89 57.36 56.20 55.31 53.74 52.78 53.53
53.28 53.12 52.91 52.69 52.71 53.13 53.80 53.69 53.41 53.06 52.63 52.23 53.40 51.18 45.47 42.41 52.14 53.22 51.81 47.21 47.66 50.95 51.18 53.11 51.23 48.56 46.48 42.93 46.11 45.60 42.83 44.90 46.87 48.52 48.52 51.49 47.44 49.22 54.36 54.51 51.86 52.34 52.81 52.26 53.41
53.06 53.28 52.81 52.66 52.48 52.61 53.12 53.57 53.63 53.23 53.20 53.03 52.89 48.65 40.38 50.63 51.98 50.58 51.21 49.94 51.75 47.79 48.37 54.07 54.65 48.70 44.07 44.51 43.99 41.42 40.35 36.88 44.42 47.89 48.45 48.82 42.25 49.81 53.08 51.75 51.22 51.67 52.25 51.97 51.48
52.73 53.03 52.60 52.37 52.48 52.85 53.26 53.20 53.08 53.28 52.94 51.99 47.85 44.92 38.24 51.60 47.54 50.81 50.91 47.11 48.66 46.91 45.86 50.26 51.74 45.98 44.72 42.04 38.96 37.69 36.57 37.93 41.15 47.18 46.49 46.89 42.91 49.79 50.23 50.06 49.74 50.76 51.15 51.74 51.29
52.50 52.81 52.62 52.16 52.54 52.68 52.98 52.35 51.58 50.41 49.62 49.96 48.05 41.00 43.51 40.85 48.28 48.78 50.41 49.55 45.83 43.11 42.67 43.33 43.98 40.85 38.99 38.22 33.45 34.79 35.21 38.17 38.91 44.18 45.40 43.17 43.39 47.99 50.11 49.51 49.14 49.84 50.50 50.57 50.88
52.04 52.58 52.58 52.10 52.08 52.40 50.30 42.69 40.27 40.32 43.68 39.21 39.52 40.21 42.67 48.69 50.89 48.05 47.39 46.59 45.57 41.84 36.51 40.75 38.58 36.96 39.52 41.74 41.33 39.93 38.39 37.83 40.36 45.50 43.95 42.33 42.61 45.90 48.91 47.56 47.24 48.70 49.67 50.00 50.97
52.14 51.85 51.95 51.95 52.00 52.06 47.64 38.41 42.68 43.42 37.03 43.34 42.82 43.62 46.35 47.62 42.06 45.61 47.56 41.27 40.33 36.80 40.10 39.98 36.21 41.67 43.90 43.31 41.86 40.80 38.18 37.63 41.89 46.59 44.24 42.88 42.52 45.92 47.47 47.96 47.45 49.27 50.09 49.96 48.39
52.09 51.69 51.86 51.77 51.93 44.24 40.01 41.94 47.90 45.67 36.61 39.75 42.96 41.87 42.36 44.53 40.92 41.75 47.02 42.89 39.32 36.28 38.33 36.55 39.57 44.15 43.48 42.28 40.31 39.91 38.82 39.22 39.17 44.77 44.18 42.16 40.37 43.40 47.21 47.93 48.38 48.98 49.39 49.09 48.79
51.85 51.89 51.59 51.77 44.14 41.51 41.83 44.16 47.81 47.70 32.31 33.24 38.30 41.26 43.24 43.04 38.87 45.94 48.31 44.23 39.57 36.22 37.89 37.61 41.53 41.53 41.81 41.22 42.60 37.15 43.44 42.79 42.08 39.92 33.64 41.55 31.27 40.42 43.61 46.29 46.61 48.03 47.24 48.36 48.62
51.63 51.53 51.70 50.78 44.75 42.30 43.20 45.69 45.92 43.64 17.39 34.40 38.60 47.27 44.65 39.49 41.32 42.00 46.97 44.97 39.79 36.96 38.07 35.42 38.47 39.39 39.54 42.19 45.18 40.94 46.12 43.67 42.93 38.68 34.99 37.03 33.24 38.83 41.65 42.33 45.59 47.31 48.08 47.45 47.25
51.82 51.60 51.29 46.95 45.61 44.62 45.94 45.08 42.12 29.09 18.99 32.47 38.98 37.34 37.04 40.99 41.44 44.04 42.91 45.38 45.47 38.62 38.55 38.38 42.33 41.89 41.63 45.42 46.19 46.24 42.48 40.21 38.39 35.37 30.13 36.58 35.64 35.02 39.40 43.78 45.35 46.67 47.87 49.11 48.23
51.48 50.86 49.17 48.20 39.81 43.52 44.06 39.85 26.68 20.88 35.11 31.45 33.04 36.77 37.32 35.33 37.74 40.25 38.58 37.00 36.05 33.10 33.65 36.43 37.29 40.39 43.40 39.93 42.79 41.15 35.84 27.64 24.84 24.95 27.08 38.64 35.13 38.53 42.99 45.41 46.95 47.54 47.45 47.87 48.78
50.72 48.95 47.31 47.32 44.48 45.53 40.14 32.91 21.60 28.18 29.72 36.46 34.85 35.53 32.98 35.37 34.54 36.19 37.13 34.39 38.53 36.84 35.13 31.58 29.61 37.50 42.72 40.08 39.00 40.69 37.50 29.04 23.96 25.64 31.90 38.27 33.43 39.23 45.73 47.93 47.94 48.71 47.80 48.23 49.07
48.93 42.20 40.71 42.52 45.70 45.50 36.77 24.99 23.03 29.35 33.13 31.48 32.83 30.77 31.24 34.30 33.96 34.02 33.26 35.39 38.42 39.03 32.59 32.13 33.14 41.17 42.56 43.81 43.40 38.90 34.91 39.35 33.01 34.90 31.04 33.33 38.90 43.89 45.87 47.13 47.42 47.07 47.38 47.25 48.76
44.05 41.81 38.50 44.26 45.92 44.29 32.36 25.31 28.67 35.04 34.81 33.75 26.47 31.51 27.45 30.01 30.85 30.89 32.11 38.71 36.79 39.83 39.59 36.27 31.23 39.69 41.25 42.50 44.13 39.88 41.61 33.64 33.12 26.18 24.81 31.63 34.60 37.30 41.72 44.60 46.70 46.65 45.89 46.60 48.97
37.26 33.12 41.04 47.85 47.42 39.46 25.54 27.40 31.46 36.14 36.34 32.20 30.32 29.21 30.08 29.61 31.87 30.08 31.73 37.04 37.73 37.78 40.00 36.52 33.81 35.58 39.48 37.40 36.45 35.59 34.34 33.77 35.83 30.94 27.17 26.41 32.61 41.38 43.84 45.25 46.37 46.57 46.57 46.83 49.31
37.32 27.16 42.27 47.80 34.37 32.14 26.94 32.50 36.76 35.14 37.45 34.86 34.61 32.68 31.08 32.99 31.50 30.48 30.71 33.37 38.01 38.68 33.07 36.04 32.26 30.76 35.79 39.84 42.94 40.87 36.85 36.06 32.87 30.61 32.87 32.77 33.76 44.40 44.88 44.47 46.38 46.97 47.68 47.65 49.61
35.65 34.00 40.49 44.22 27.72 30.09 32.20 33.12 35.20 33.89 34.21 33.22 32.09 33.85 34.25 32.38 28.75 33.01 33.74 38.92 38.11 36.84 34.58 37.05 31.67 27.47 29.92 35.63 38.02 38.21 39.55 39.19 35.48 33.55 33.36 30.99 33.29 45.38 46.19 45.78 46.75 46.55 47.75 48.85 49.78
36.06 27.69 32.43 37.00 36.30 33.37 30.74 29.17 30.43 36.72 34.68 34.74 32.62 33.18 31.62 31.98 34.46 32.19 33.34 37.15 39.44 38.74 42.60 38.52 31.51 30.86 29.82 32.06 36.31 34.50 38.29 39.38 36.13 29.51 32.55 36.37 36.76 41.79 46.08 45.47 45.26 47.01 47.56 48.40 49.86
32.01 28.33 33.12 29.48 29.66 32.29 32.74 29.75 28.92 29.96 35.52 34.99 31.19 31.94 31.34 28.98 31.11 31.73 34.99 36.66 38.22 40.24 39.46 33.09 27.55 32.46 33.35 36.94 38.43 37.96 38.17 38.79 36.45 38.02 34.51 36.61 38.35 41.02 44.12 46.18 46.14 47.30 47.83 49.18 49.86
31.30 34.79 35.58 33.09 34.73 32.41 29.19 27.16 30.06 31.42 33.12 33.81 32.40 33.37 32.84 30.65 32.11 30.49 33.50 34.77 34.21 36.87 35.93 36.16 28.10 31.66 31.02 38.37 39.06 37.41 38.71 38.86 39.24 39.19 39.00 38.54 39.01 43.77 45.55 48.28 48.09 48.44 49.04 49.52 50.34
41.28 40.24 37.78 33.46 31.86 30.48 29.67 31.17 31.18 32.59 34.71 36.47 34.83 32.71 31.49 33.75 36.95 37.08 37.38 37.56 38.50 35.44 34.58 34.24 29.72 27.70 25.37 33.15 36.21 32.87 38.23 38.69 39.23 40.39 40.30 37.23 42.59 44.02 45.94 48.64 48.43 48.44 49.76 50.61 51.43

GFSSW_sfc_wetblb_015.txt.gz
Wetbulb
53.90 53.79 53.46 53.20 53.24 53.21 53.28 53.67 54.32 54.66 55.36 56.38 56.64 56.42 56.27 56.60 56.18 52.06 46.20 52.57 55.90 62.61 66.09 63.74 61.53 60.68 58.89 57.09 59.81 57.75 52.08 48.64 49.24 48.98 51.69 54.80 54.44 56.56 58.33 57.56 58.01 58.10 59.16 60.45 61.64
54.32 54.17 53.89 53.72 53.60 53.09 52.70 52.92 53.10 53.86 53.89 55.11 56.32 56.05 55.85 56.32 51.95 48.86 55.29 59.60 62.80 64.89 62.02 58.07 55.33 58.40 56.93 56.87 57.42 55.66 51.39 50.63 53.75 53.99 53.02 54.20 54.64 55.55 55.62 56.22 56.63 57.96 60.32 60.26 60.95
53.58 53.99 54.42 54.41 53.89 53.37 53.75 53.51 52.86 52.86 53.49 53.78 54.42 55.23 55.43 55.71 45.47 45.07 64.31 61.91 60.98 64.82 57.57 58.08 57.10 56.73 54.20 55.98 55.83 55.00 51.30 54.51 55.01 55.72 55.34 54.72 54.80 56.93 55.07 53.77 56.50 56.47 58.78 60.86 61.45
53.48 53.55 53.58 53.47 53.74 53.91 54.12 54.12 53.99 53.73 52.88 53.31 53.71 54.30 55.25 52.21 40.57 52.45 61.35 61.68 66.18 59.17 55.19 53.64 54.92 53.53 51.39 51.61 55.74 51.48 54.60 55.35 55.77 56.63 55.69 54.45 56.34 54.24 56.25 56.55 59.41 59.63 60.50 60.45 60.57
53.19 53.48 53.40 53.42 53.08 52.92 53.40 53.71 54.04 53.81 53.31 52.69 52.98 53.73 51.56 45.75 44.94 49.85 57.57 56.63 56.22 59.09 52.75 50.89 52.82 51.85 49.32 51.78 52.98 52.24 53.74 55.50 56.53 56.61 56.42 56.68 54.51 54.59 55.42 57.56 59.34 59.88 60.18 60.19 60.78
52.41 52.77 52.99 52.97 53.00 52.55 52.91 53.23 53.37 53.46 53.59 52.82 52.38 53.26 47.35 37.51 52.14 53.67 53.62 52.55 49.82 56.33 53.04 51.73 52.57 54.14 51.40 50.97 50.96 52.84 53.41 53.78 55.29 55.39 55.63 53.94 53.68 54.92 55.67 58.52 58.27 58.77 58.85 59.59 60.15
52.32 52.49 52.68 52.68 52.60 52.20 52.91 53.44 53.10 53.04 53.30 53.39 53.56 50.19 44.76 42.29 52.03 53.52 52.64 51.48 50.89 50.44 48.80 53.50 52.75 51.48 52.19 49.62 53.22 52.83 50.03 52.31 52.70 53.67 53.21 52.79 48.84 49.91 55.14 56.46 55.73 56.57 57.98 58.73 59.38
52.61 52.84 52.55 52.67 52.37 52.57 53.09 53.58 53.15 53.15 53.61 53.65 53.89 49.04 40.74 50.86 53.20 51.39 52.43 51.25 52.74 52.61 49.93 51.97 54.17 50.88 49.35 50.51 47.95 46.86 47.35 43.42 48.74 49.89 50.45 49.74 45.41 51.67 54.68 54.90 55.10 56.09 56.90 56.87 58.65
52.71 52.79 52.48 52.59 52.49 52.41 52.81 52.98 52.45 52.70 53.11 52.29 48.21 45.17 39.49 51.46 47.49 51.69 52.76 48.71 50.80 51.76 51.28 50.20 52.45 49.69 48.64 45.20 44.04 44.59 41.29 42.25 45.01 49.54 49.15 49.84 47.21 51.27 54.13 53.72 53.46 54.65 55.62 56.37 57.74
52.18 52.73 52.77 52.38 52.53 52.52 52.66 52.13 51.22 50.95 50.70 50.48 48.65 41.00 43.27 42.86 48.74 50.50 52.67 51.32 48.27 47.76 46.47 45.77 47.78 45.28 45.06 43.33 37.29 40.55 40.15 42.55 42.70 47.21 47.47 47.12 47.30 50.71 52.24 52.55 53.21 54.28 55.43 56.39 56.84
51.76 52.55 52.44 52.51 52.07 52.11 50.65 46.94 44.92 43.66 45.04 41.32 41.30 40.99 42.98 47.41 49.93 47.31 50.43 48.56 47.93 44.89 41.19 43.71 41.16 40.27 42.72 44.08 44.82 44.91 44.15 43.64 46.53 47.47 46.07 45.88 46.43 49.03 51.93 52.60 52.86 53.62 54.75 56.49 57.80
52.00 52.07 52.21 51.90 51.86 51.44 47.76 42.94 43.09 43.61 37.38 43.69 43.45 43.69 46.03 47.53 41.47 45.31 49.38 43.58 42.44 39.15 43.01 40.57 38.56 44.07 46.15 45.00 42.81 42.55 42.25 42.93 45.54 46.60 46.21 46.15 45.96 49.79 51.24 51.83 52.78 53.67 54.95 56.04 57.49
52.16 51.87 52.03 51.61 51.60 47.19 44.90 44.20 48.58 48.06 37.52 40.15 43.80 42.78 43.69 45.50 40.85 42.01 47.11 44.05 40.67 39.29 40.08 39.73 42.08 43.86 43.15 43.19 41.40 41.73 40.76 41.58 42.14 45.27 47.10 46.09 44.37 46.65 50.16 52.65 53.41 54.13 55.56 56.67 56.82
52.02 51.86 51.89 51.54 46.03 45.68 43.63 47.71 49.06 48.38 32.57 34.81 38.53 42.62 44.57 44.87 39.69 47.04 47.12 44.87 41.77 38.95 40.45 40.68 44.54 42.53 41.85 41.41 43.35 39.33 44.53 43.39 42.64 41.75 38.71 46.14 38.25 45.59 48.39 49.19 51.37 53.24 55.20 56.46 57.22
51.74 51.47 51.62 50.95 45.77 42.23 45.79 49.03 49.18 45.48 19.73 36.30 40.33 48.91 45.82 41.58 43.26 44.95 48.16 44.35 40.07 40.20 41.06 38.60 40.39 40.91 40.13 41.45 44.47 42.13 45.69 44.37 43.77 42.21 42.25 42.64 39.80 43.54 48.06 46.90 49.43 51.96 54.93 57.05 55.91
51.63 51.20 50.56 48.00 46.39 46.73 48.94 48.51 46.03 30.65 19.14 33.41 39.83 38.29 38.82 41.54 41.11 44.40 44.19 45.65 45.62 41.91 41.64 42.00 44.98 43.31 43.16 44.84 45.53 46.82 45.29 45.07 45.07 43.24 36.14 41.28 40.57 40.50 44.45 47.25 49.74 53.58 55.40 54.97 55.22
51.07 50.08 47.57 48.31 42.16 47.72 48.19 44.37 29.76 22.40 34.87 32.04 33.48 36.91 36.91 36.36 36.76 38.53 38.38 37.93 36.58 34.38 35.90 39.60 40.25 43.06 44.36 42.55 45.91 46.00 43.11 36.17 34.18 34.36 34.44 43.16 40.50 41.27 48.56 49.86 50.69 52.56 55.51 55.30 55.91
50.20 49.60 46.73 47.31 48.54 48.66 45.04 36.39 21.14 28.44 30.64 36.57 35.12 35.56 33.17 36.29 34.23 35.24 36.14 37.04 38.67 40.03 38.46 35.31 33.19 40.34 44.31 43.10 42.40 43.46 43.00 37.10 30.51 32.57 36.75 42.26 37.30 41.20 50.24 52.07 52.65 54.23 55.59 55.28 56.03
48.79 46.71 45.43 46.94 47.32 47.71 39.20 26.26 25.99 29.90 33.67 32.37 33.75 30.60 31.45 34.28 34.08 33.43 33.96 36.44 38.99 40.47 34.72 36.66 37.00 43.40 43.98 45.69 46.91 43.53 40.61 45.49 40.22 40.87 38.85 40.69 43.68 47.93 51.09 51.63 53.03 53.47 53.17 54.82 55.88
44.09 42.75 43.89 48.51 48.40 45.67 35.12 27.90 30.21 35.49 35.44 34.52 27.35 31.15 27.83 30.88 30.57 31.62 30.98 35.78 35.68 39.18 41.36 39.27 35.86 42.50 42.81 45.19 45.80 45.13 46.93 38.63 40.53 32.76 31.28 38.06 39.84 43.20 47.86 50.10 52.89 53.54 53.68 54.42 55.96
42.57 38.95 46.34 49.02 46.97 39.63 30.35 30.18 32.83 37.44 37.55 32.94 30.86 30.11 30.76 29.78 32.33 30.91 30.81 34.88 36.72 37.59 40.63 40.34 39.15 40.01 42.12 41.11 40.53 41.58 42.03 42.50 42.93 40.04 34.73 34.22 38.77 50.37 50.95 52.75 53.70 55.06 54.74 55.05 56.02
41.41 34.85 45.14 48.85 35.87 34.34 31.75 33.51 37.04 36.01 38.42 35.82 35.83 33.85 32.24 32.48 31.40 31.41 30.54 33.72 38.96 37.79 34.27 39.13 37.97 36.72 39.32 43.94 45.99 44.49 42.94 43.18 37.72 35.55 40.00 38.91 39.41 50.65 52.44 53.26 53.81 54.29 54.27 55.57 56.85
36.24 35.74 44.82 45.73 29.64 30.93 34.19 33.31 35.11 34.83 35.14 34.71 33.27 34.96 35.56 32.14 29.62 33.30 34.17 38.82 38.60 38.06 35.90 38.53 37.16 34.85 36.88 41.13 44.08 41.94 43.50 44.21 44.17 43.49 38.42 35.27 40.05 50.36 52.68 51.91 52.68 54.26 54.21 54.87 56.32
38.89 32.38 38.23 41.31 38.08 32.85 30.27 30.96 31.31 37.17 35.97 36.16 35.18 36.25 34.63 32.60 35.29 32.16 33.76 37.33 39.70 38.99 41.45 40.46 35.42 34.52 34.84 37.85 41.74 39.29 41.47 43.03 42.93 38.83 39.29 39.59 42.25 47.05 50.21 52.78 53.18 53.98 54.83 55.64 56.40
38.40 34.00 36.41 30.74 33.51 33.47 32.04 30.91 29.94 30.63 36.22 36.97 34.52 33.72 33.06 30.40 32.37 32.18 34.19 36.24 38.33 39.82 39.37 37.85 31.63 34.59 36.50 37.44 39.18 40.72 40.69 41.56 40.74 42.18 39.44 41.45 42.13 45.79 49.50 51.79 53.10 55.13 54.91 55.15 55.87
36.60 35.89 37.86 34.48 35.21 32.86 32.38 30.19 30.59 32.50 32.82 32.37 32.69 34.24 34.05 30.76 32.58 30.38 33.81 34.81 34.87 37.99 37.83 38.29 32.91 35.01 35.58 39.29 40.38 39.10 41.65 41.86 42.04 41.97 41.77 42.64 43.47 49.53 51.16 52.66 53.18 54.54 54.58 55.24 56.26
42.67 42.24 38.12 34.39 33.39 31.53 32.19 31.83 32.46 35.19 35.63 36.72 35.81 33.93 32.95 34.97 37.81 38.41 38.70 38.47 37.41 35.84 35.77 35.91 34.66 33.14 33.12 37.16 38.30 36.23 41.23 42.32 42.35 43.54 43.09 40.35 45.35 49.08 49.61 52.22 54.39 55.32 55.54 55.97 56.96

GFSSW_sfc_wetblb_021.txt.gz
Wetbulb
54.47 54.50 54.54 54.56 54.35 54.30 54.73 54.98 55.14 54.96 54.69 54.60 54.42 54.79 55.17 55.66 55.92 57.35 55.04 58.85 61.54 63.61 65.78 64.12 64.92 63.31 62.34 59.26 59.10 60.01 53.94 52.17 54.14 54.24 54.64 58.78 57.80 60.03 61.00 59.73 60.43 61.44 61.28 62.86 64.71
54.21 54.17 54.35 54.35 54.29 54.04 54.04 54.23 54.52 54.92 54.83 54.77 54.61 54.41 54.83 55.39 54.68 53.55 60.83 63.92 65.17 65.14 56.47 58.39 59.64 60.17 59.58 59.36 58.79 56.39 54.04 54.46 57.82 57.93 56.95 58.74 58.66 59.22 58.87 58.86 59.03 60.02 62.46 63.75 64.15
53.16 53.58 53.68 53.69 54.06 53.99 53.66 53.70 53.94 54.08 54.29 54.74 54.60 54.28 54.01 55.15 52.48 52.15 61.64 63.59 64.61 64.97 55.09 57.35 60.77 59.44 56.61 59.32 58.18 57.20 54.20 58.15 58.83 59.56 59.88 58.92 58.85 60.38 58.74 57.47 59.49 58.81 60.82 62.47 62.97
52.41 53.02 53.34 53.59 53.90 53.83 53.70 53.45 53.34 53.97 54.08 54.05 54.29 54.36 54.05 54.58 44.98 58.74 59.65 60.47 61.50 60.33 55.25 53.47 54.52 56.37 54.76 54.17 58.37 55.66 58.24 58.92 59.27 59.87 58.90 58.38 59.57 58.55 59.41 59.62 61.79 61.31 62.11 62.49 62.14
52.79 53.27 53.23 53.42 53.67 53.73 53.78 53.73 53.80 53.94 54.00 53.98 53.93 54.29 53.56 49.66 50.38 57.69 62.17 62.45 58.74 60.55 58.23 53.74 52.41 54.14 54.29 54.85 56.27 55.59 56.74 58.07 59.20 59.16 58.87 59.21 58.16 58.09 58.99 61.15 62.18 61.99 61.92 61.61 61.99
52.88 53.06 53.17 53.37 53.54 53.52 54.06 54.18 54.03 53.91 53.68 53.87 54.12 53.72 51.18 43.37 54.71 56.04 56.28 56.12 56.65 56.68 58.80 56.15 54.79 56.68 55.87 56.08 55.09 56.70 56.73 56.82 57.62 57.45 57.94 56.63 57.60 58.38 59.23 61.39 60.99 60.45 60.66 61.47 61.39
52.24 52.49 52.60 53.14 53.30 53.18 54.06 53.76 53.60 53.84 53.68 54.02 54.25 53.97 49.17 47.40 54.41 55.07 55.26 54.62 55.11 55.45 53.59 58.28 57.74 55.47 56.62 55.14 58.12 57.07 54.37 55.92 56.59 57.01 56.23 57.59 54.59 55.56 59.27 59.99 59.37 59.95 59.95 60.61 61.21
52.36 53.15 53.04 52.98 53.09 53.54 53.34 53.56 53.62 53.57 53.88 54.44 54.62 53.36 45.15 53.33 54.44 52.94 53.71 52.95 54.63 55.43 55.18 56.06 58.04 56.52 55.24 56.50 55.29 53.10 54.10 50.57 55.23 56.30 56.54 55.94 50.77 56.09 59.16 58.60 58.64 58.87 58.98 59.68 60.59
53.25 53.25 52.90 52.84 53.09 53.15 53.50 53.24 53.29 53.81 54.12 54.40 53.10 50.70 45.22 55.65 51.17 53.23 53.15 50.39 52.39 54.30 55.20 55.01 54.29 52.46 53.58 50.30 49.74 52.04 47.91 50.14 51.75 56.19 55.74 54.69 52.50 56.54 58.66 58.34 58.23 58.59 59.10 58.96 60.10
53.06 52.73 52.81 52.77 52.77 53.08 52.94 52.38 54.09 52.81 53.88 55.50 54.01 47.19 49.95 46.01 49.18 52.04 54.58 53.40 51.57 51.68 51.62 51.25 50.03 47.59 49.14 48.56 43.32 46.54 47.81 49.58 49.53 53.64 54.36 53.16 52.94 55.89 57.50 56.58 56.72 58.14 58.82 58.93 59.37
52.44 52.71 52.58 52.83 52.71 52.61 52.07 53.47 50.08 49.08 51.83 47.51 46.23 46.55 47.45 50.02 51.07 49.08 51.15 50.65 51.84 49.88 45.68 49.58 45.13 42.91 46.11 48.76 49.79 49.67 49.16 48.88 51.53 54.50 52.66 52.24 52.73 54.91 56.20 56.28 56.34 57.42 58.38 58.77 59.08
52.40 52.08 52.29 52.63 52.73 52.38 52.63 48.47 48.44 49.17 42.57 48.16 47.59 47.41 48.77 49.54 44.55 47.03 50.40 46.11 46.69 44.16 46.66 46.64 43.07 47.48 48.61 49.03 48.62 48.25 47.56 48.22 51.60 53.75 52.73 52.63 52.20 54.81 55.98 55.95 57.01 57.08 57.96 58.66 59.44
52.67 52.48 52.04 52.35 51.88 51.97 50.83 49.46 53.42 52.49 41.53 44.16 46.80 46.08 47.04 49.17 45.10 45.48 48.18 46.22 43.62 44.23 45.17 43.05 46.17 48.75 47.47 46.87 46.53 47.61 46.89 47.81 48.45 51.72 53.21 51.57 49.68 51.53 54.58 56.13 56.55 57.15 58.26 58.94 59.51
52.29 52.37 52.37 51.74 49.24 51.86 48.87 52.09 53.32 52.60 36.48 39.50 43.44 46.53 48.44 49.02 44.82 50.89 50.62 46.93 43.58 41.21 44.96 44.86 47.54 47.32 46.58 45.64 47.19 44.51 49.76 49.40 49.04 48.08 44.31 50.89 43.30 49.70 52.65 53.70 55.14 56.34 57.90 58.94 59.54
52.19 52.20 52.04 50.67 50.29 48.75 50.39 53.41 53.42 49.55 24.81 40.41 43.37 51.71 48.05 45.00 45.95 47.38 52.41 48.61 41.46 41.88 42.73 42.28 45.02 44.86 45.16 46.11 48.20 46.53 49.73 49.39 49.41 47.14 46.98 46.76 44.28 47.60 51.81 51.23 53.53 56.03 57.24 58.74 59.33
51.87 51.58 50.82 52.51 51.83 51.81 53.89 52.90 50.57 34.10 25.22 37.51 42.70 42.09 42.52 43.79 45.09 45.73 46.93 50.34 48.96 43.50 43.54 43.68 48.18 47.76 46.58 48.61 49.17 49.71 48.25 48.86 49.34 47.33 41.45 45.72 44.73 45.92 49.09 51.85 54.26 56.29 57.36 58.46 59.60
51.80 50.74 50.91 53.23 48.89 53.83 53.12 46.98 33.01 28.04 38.08 35.03 36.60 39.78 39.28 39.74 40.48 42.70 41.49 40.93 40.57 37.38 37.20 41.16 43.21 47.29 48.92 45.96 48.96 48.66 46.37 40.71 39.87 39.74 40.10 46.94 45.18 47.42 52.87 54.64 55.19 55.86 56.84 58.19 60.72
50.82 49.54 50.51 52.84 53.35 53.45 50.05 39.38 27.87 34.25 34.96 39.86 38.35 38.83 36.15 38.58 39.23 39.48 39.88 38.05 41.75 41.66 39.08 36.21 34.53 42.94 47.80 46.36 45.58 46.44 46.34 41.37 35.42 38.57 41.25 47.49 43.49 48.26 54.81 55.00 56.18 57.40 57.79 60.42 62.05
49.20 53.43 51.16 53.39 54.29 51.54 42.66 33.15 32.36 35.39 38.61 36.98 38.18 34.62 35.39 38.20 37.98 37.66 37.98 37.81 40.41 40.25 34.86 38.18 37.20 44.39 46.82 48.32 47.62 45.96 44.24 48.79 44.76 46.99 43.60 46.88 49.52 53.16 54.98 55.09 54.71 56.14 57.07 59.97 62.19
50.89 50.48 50.59 53.82 54.48 50.32 41.40 33.32 36.45 40.12 40.09 39.28 32.51 35.81 32.35 35.72 35.38 36.24 36.33 39.71 37.96 41.21 41.74 40.70 36.77 42.88 46.16 47.99 48.21 47.71 49.71 43.08 45.58 38.55 39.08 44.43 46.79 47.76 51.37 52.66 54.52 56.48 56.82 60.00 62.62
50.09 46.10 51.31 54.20 53.36 45.35 36.01 36.55 38.88 41.64 41.33 37.89 35.46 34.54 35.58 34.53 36.33 35.79 35.51 39.31 40.19 40.52 42.03 42.07 39.28 42.10 44.33 44.66 43.69 44.79 45.18 46.49 47.25 45.88 41.52 40.94 45.20 54.18 53.41 54.25 55.07 57.44 59.14 61.26 62.14
49.27 42.33 51.19 54.93 42.13 43.58 37.74 38.83 39.94 40.31 42.11 40.33 39.76 37.69 36.36 36.60 34.93 35.69 34.97 38.34 41.28 42.02 38.67 43.62 40.36 38.48 42.14 47.34 48.44 47.54 46.84 47.20 43.89 43.32 45.73 46.07 45.21 54.18 55.20 56.44 56.56 57.71 60.50 62.20 62.86
45.72 47.03 52.04 50.42 37.15 36.37 39.92 39.18 40.68 39.35 39.82 38.80 37.21 39.33 40.66 37.33 33.72 37.43 38.45 41.84 41.17 39.70 38.95 42.18 39.91 35.69 38.53 45.22 46.99 45.21 47.34 49.23 49.09 49.58 45.24 43.51 45.73 54.86 56.09 56.59 57.78 58.94 60.63 61.64 62.08
46.39 41.64 46.52 48.81 42.75 38.21 36.01 37.30 36.87 41.09 40.05 41.25 38.99 39.72 37.81 36.74 39.58 35.62 37.18 39.43 41.40 40.93 42.68 41.17 40.16 39.16 34.62 41.21 44.98 43.47 45.74 48.36 48.52 45.03 45.82 46.03 47.94 50.91 54.30 55.74 57.53 59.62 61.11 61.27 61.73
47.96 42.87 42.92 38.17 39.85 37.96 37.05 37.21 35.64 35.17 39.77 41.65 39.16 38.06 37.25 34.49 36.18 35.96 37.54 39.68 39.74 41.38 41.19 40.19 37.40 40.77 39.85 41.85 43.96 45.43 45.78 47.60 46.77 48.30 46.24 47.71 47.96 51.43 55.27 56.13 57.97 60.02 60.49 60.78 61.28
43.05 41.42 43.76 40.53 40.30 37.24 38.17 36.82 35.88 37.68 37.32 37.09 36.85 39.20 39.75 36.15 37.51 35.24 37.27 38.84 36.92 40.33 40.40 42.36 38.42 40.28 36.09 40.43 43.85 44.30 45.81 47.23 48.20 48.27 48.62 49.11 48.53 53.71 56.48 56.24 56.43 57.43 59.43 60.22 61.00
48.37 46.91 42.02 39.13 39.74 36.36 37.30 37.36 36.37 38.24 40.18 40.71 39.35 39.45 38.50 39.98 42.89 43.29 43.81 43.57 42.23 39.85 38.92 38.14 40.24 37.08 33.21 40.52 42.18 40.66 45.70 46.80 47.52 49.67 49.30 46.27 50.04 53.10 52.79 53.81 55.69 57.70 58.16 60.06 61.51

GFSSW_sfc_wetblb_024.txt.gz
Wetbulb
53.73 54.07 54.05 54.44 54.51 54.47 54.49 54.35 54.66 54.91 55.01 55.14 55.52 55.35 55.37 55.22 55.26 54.77 52.29 57.15 61.26 64.48 64.51 63.21 63.22 64.37 64.59 62.85 59.86 57.52 50.78 49.89 51.84 53.15 54.58 58.33 56.86 59.71 61.13 59.06 59.67 60.63 60.43 62.09 63.97
53.14 53.68 53.83 54.04 53.90 54.21 54.39 54.15 54.14 54.35 54.45 54.78 55.05 55.28 55.62 55.79 52.41 52.01 58.57 64.54 65.48 65.90 56.90 56.39 59.22 60.81 58.48 58.55 58.98 54.33 50.66 51.49 55.64 56.44 55.83 57.85 57.89 58.29 58.29 58.56 58.69 59.75 62.41 63.12 63.44
52.92 53.13 53.65 53.88 54.16 54.17 54.16 54.23 54.14 54.07 54.28 54.61 54.66 54.69 55.45 55.10 51.11 51.06 62.75 66.37 66.01 64.10 55.85 56.82 57.99 59.67 55.77 56.69 57.23 56.04 51.87 54.50 56.11 57.76 58.73 57.63 58.06 60.17 58.36 57.13 58.97 59.37 60.96 62.38 62.30
53.44 53.58 53.59 53.85 54.01 53.96 54.02 54.19 54.20 54.22 54.28 54.31 54.20 54.50 55.18 53.05 43.56 55.77 63.31 61.80 63.13 57.61 54.86 53.24 52.43 52.70 54.70 53.34 55.91 53.51 56.36 56.29 56.73 58.01 58.01 57.24 59.11 58.15 58.74 59.06 61.39 62.01 62.92 62.49 62.41
52.88 53.16 53.32 53.37 53.74 54.23 54.21 53.85 54.24 54.14 53.95 54.04 54.14 54.23 52.50 46.43 48.05 57.07 64.31 62.82 57.79 56.67 54.28 52.53 50.58 50.96 50.50 54.58 55.40 53.73 55.27 57.12 58.26 58.29 58.50 59.00 57.44 57.67 58.07 60.63 61.71 61.96 62.24 62.30 62.39
52.58 52.83 53.20 53.31 53.57 54.06 54.37 54.17 54.02 54.17 53.90 53.79 54.12 53.79 49.71 40.89 53.12 54.58 55.50 55.70 55.57 54.95 55.09 57.27 53.00 53.61 52.26 52.69 53.86 55.95 54.89 55.36 56.51 57.03 57.60 56.28 56.62 57.18 57.97 60.00 60.08 61.03 61.39 61.76 62.32
53.45 53.72 53.49 53.47 53.80 54.15 54.29 54.02 53.77 54.04 53.69 54.08 54.39 53.26 47.52 45.31 53.32 54.33 54.33 53.58 55.20 55.13 53.85 56.18 58.86 54.47 53.72 51.58 55.19 54.78 52.79 54.87 55.78 55.94 55.76 57.30 54.42 55.29 58.96 59.61 58.95 59.79 60.66 61.21 61.78
53.61 53.65 53.42 53.31 53.57 53.94 54.17 53.98 53.67 53.64 53.98 54.72 54.79 52.29 43.95 52.42 53.89 52.68 53.23 51.97 52.66 53.49 53.46 54.70 55.94 53.43 53.74 54.55 52.84 51.32 51.67 48.82 54.15 55.88 56.45 56.05 49.94 56.36 59.09 58.48 57.98 58.80 59.85 60.85 61.80
53.61 53.28 52.66 52.56 52.85 53.22 53.65 53.42 53.80 54.10 54.63 55.01 52.26 49.63 44.02 55.76 50.57 53.09 53.06 49.13 50.38 51.44 52.70 53.82 53.01 51.01 51.71 49.48 48.01 49.74 46.34 47.74 50.77 55.61 54.93 54.29 51.45 56.22 58.98 58.23 58.04 58.95 59.64 59.98 60.66
53.16 53.11 53.11 52.80 52.58 53.22 52.91 52.58 53.63 53.69 54.48 54.99 53.79 47.06 50.30 47.94 50.45 51.82 54.11 52.56 48.74 49.08 48.77 49.57 48.91 45.84 46.72 46.34 41.64 44.58 45.61 48.02 48.63 52.68 53.61 52.44 52.71 55.83 57.78 57.22 57.47 58.89 59.22 58.74 59.28
52.74 52.89 53.07 53.24 53.26 52.68 51.36 52.37 48.62 47.66 51.03 47.61 48.85 47.69 48.53 51.12 51.28 48.84 50.43 49.16 49.64 48.81 43.44 46.65 43.78 41.80 43.80 46.56 47.54 47.75 47.73 46.79 50.41 53.29 52.19 52.18 52.62 54.28 56.78 56.75 57.11 57.98 58.03 58.85 60.00
52.62 52.70 52.87 52.95 53.01 52.33 51.50 48.84 48.20 49.45 41.97 47.84 47.40 47.13 48.71 48.83 44.26 46.81 50.27 44.87 44.86 42.14 46.21 43.61 41.64 46.62 47.31 46.74 45.86 45.42 45.38 46.19 50.27 52.04 51.84 51.45 51.51 54.61 56.34 56.79 57.52 58.04 58.18 59.01 59.89
52.56 52.81 52.87 52.64 52.37 52.36 50.98 49.82 52.50 51.70 42.21 43.74 46.53 45.85 46.38 47.42 44.09 44.99 47.68 45.18 42.02 41.22 43.28 41.17 43.79 47.33 46.68 45.36 44.58 45.10 44.71 46.19 46.28 49.69 51.26 50.81 49.27 52.09 54.94 56.50 57.47 57.74 58.53 59.12 59.17
52.28 52.38 52.32 51.86 49.39 51.34 49.33 52.25 52.89 52.25 35.68 39.79 42.27 45.63 46.77 47.22 43.81 50.04 50.38 45.91 42.66 39.09 41.34 42.64 46.34 44.50 45.11 44.41 45.62 43.08 47.54 47.16 46.80 46.14 43.40 50.18 42.30 50.44 53.17 53.76 55.22 56.45 57.47 58.65 59.22
52.01 52.26 52.08 51.06 50.54 48.93 50.48 53.47 52.90 49.20 24.87 42.22 43.70 51.77 49.42 45.61 46.80 47.27 51.74 47.45 41.40 41.64 40.91 38.41 42.60 43.35 42.08 44.68 47.14 44.59 48.10 47.08 46.94 45.83 46.44 46.28 44.36 47.61 51.93 50.40 52.68 55.54 57.41 58.60 59.92
51.81 51.89 51.66 52.39 51.81 53.14 53.69 53.10 49.73 33.12 24.04 36.95 42.24 40.87 41.41 43.47 43.96 47.27 47.52 49.36 48.93 43.70 42.24 41.06 44.32 43.86 45.36 46.41 47.21 48.82 46.59 46.67 47.18 46.23 40.85 45.43 44.86 44.83 48.33 51.02 52.94 56.00 57.62 58.82 59.50
51.41 51.37 50.26 52.67 48.65 53.93 53.67 47.50 33.16 26.77 39.51 34.83 36.57 39.28 38.89 38.89 40.78 42.49 42.15 41.33 39.34 35.74 37.18 41.04 40.63 43.24 44.71 43.60 46.72 46.31 45.70 38.88 37.59 38.47 37.91 46.45 44.28 46.38 51.76 53.17 54.60 55.86 57.30 58.93 60.23
50.55 49.76 52.69 53.75 54.39 53.64 49.76 40.03 26.41 33.08 34.22 39.90 38.96 39.27 36.77 39.52 39.22 39.50 38.63 37.33 41.53 40.23 36.45 33.75 34.35 40.70 44.16 43.32 43.47 44.20 45.17 39.83 32.90 35.66 39.54 45.96 42.00 46.35 53.58 55.34 56.79 55.97 58.23 59.01 61.24
48.91 54.14 53.12 54.04 54.56 53.32 44.65 32.99 30.98 35.32 38.30 37.01 38.01 34.88 35.51 37.91 37.93 38.64 37.24 36.77 39.91 40.75 34.91 34.35 36.26 45.36 43.88 45.62 45.80 44.07 41.36 47.10 42.76 44.13 40.59 44.26 47.76 51.58 53.70 54.61 55.71 55.03 57.81 60.58 62.29
48.95 51.13 51.01 55.10 55.37 50.04 41.07 33.99 37.06 40.62 39.59 39.11 32.71 34.45 31.24 35.31 34.13 34.70 36.49 39.46 39.78 41.94 42.87 38.32 32.39 41.34 45.31 45.08 45.61 45.20 47.68 41.14 43.76 36.13 36.32 42.39 45.00 46.50 51.81 53.48 55.08 54.94 57.60 61.21 63.10
49.87 46.83 52.86 54.46 54.06 45.33 36.17 36.69 39.10 41.86 41.35 37.90 35.50 33.67 35.42 34.51 36.37 35.46 35.71 40.13 42.11 41.02 42.49 40.57 37.45 36.47 42.26 42.27 40.30 43.04 42.75 44.47 46.03 43.91 39.00 38.30 43.17 55.75 54.34 54.93 55.51 57.02 57.67 61.48 62.06
49.63 42.73 52.48 54.22 43.49 44.59 37.97 39.62 41.23 40.74 42.69 40.69 40.39 38.29 35.33 36.34 35.45 35.87 35.75 38.10 42.78 42.50 37.34 41.79 38.23 34.01 37.21 46.07 45.15 45.77 44.01 45.15 41.48 40.45 44.12 43.88 44.45 56.13 57.03 56.11 57.67 57.71 59.61 62.00 62.48
46.65 46.74 53.24 51.41 37.91 37.51 40.24 40.03 41.21 39.94 40.63 39.58 38.53 40.23 40.21 36.59 33.03 37.44 37.17 42.13 42.58 40.66 38.39 39.73 37.53 31.96 34.71 41.71 46.28 43.49 45.29 46.89 48.09 48.46 43.69 41.24 44.17 55.38 55.50 56.75 57.35 59.10 61.04 61.65 62.10
46.96 40.98 46.19 47.59 45.42 40.01 37.88 37.17 36.74 42.64 40.77 41.10 39.40 41.12 39.37 36.23 38.35 35.54 35.51 40.79 43.16 42.41 43.48 41.35 37.14 35.05 31.99 35.67 41.06 41.08 43.72 45.92 47.06 42.72 44.09 45.62 47.40 51.85 53.94 55.28 57.67 60.23 61.44 61.30 61.47
47.39 42.73 44.63 38.00 39.61 39.62 39.38 37.68 36.57 35.94 40.98 40.89 38.47 38.77 37.07 33.91 36.05 35.82 38.74 40.01 42.30 42.47 41.88 39.34 33.82 37.75 37.54 37.88 40.15 40.73 42.93 44.32 44.95 46.84 43.97 46.72 47.52 50.95 54.94 56.19 59.04 60.69 60.84 60.57 60.75
43.29 41.40 43.67 40.06 42.48 39.89 39.44 37.74 36.57 38.10 38.56 37.40 36.39 38.24 38.85 35.78 37.09 34.99 38.06 38.69 37.52 40.78 39.93 41.66 34.93 37.27 35.35 38.37 37.93 37.68 43.42 45.53 45.98 47.17 48.11 48.41 49.20 55.45 56.81 58.21 58.54 59.80 59.90 59.79 60.53
48.30 48.25 43.30 40.05 40.76 38.93 38.31 38.03 37.99 39.85 40.99 41.37 40.51 39.45 37.99 39.42 42.63 42.63 43.64 42.75 41.61 39.46 38.74 38.45 37.02 35.16 31.91 37.91 36.56 35.66 43.08 45.20 47.05 49.53 49.57 46.70 52.30 56.03 54.59 55.82 58.19 59.50 60.45 60.51 61.07

GFSSW_sfc_wetblb_027.txt.gz
Wetbulb
53.38 53.71 53.75 53.67 54.04 54.13 54.44 54.58 54.54 54.63 54.82 55.09 55.38 55.48 55.62 55.96 55.88 51.01 48.09 53.88 57.88 63.02 63.93 62.60 60.88 62.86 62.52 59.80 60.53 57.02 43.69 42.22 46.55 48.93 51.62 56.40 55.04 58.24 59.73 57.36 58.55 59.93 59.19 59.88 61.36
53.37 53.78 53.31 53.69 54.07 54.26 54.35 54.35 54.63 54.68 54.56 54.75 55.03 55.04 55.49 55.88 50.43 47.99 55.73 62.79 63.39 66.05 56.84 52.76 51.84 58.67 58.26 57.36 58.88 55.86 44.68 45.69 50.70 52.77 52.80 54.58 55.27 56.74 57.07 57.47 56.87 58.31 61.72 62.11 62.17
53.13 53.25 53.69 53.70 53.99 54.12 54.17 54.09 54.29 54.49 54.58 54.51 54.48 54.60 55.21 54.35 47.06 48.31 64.64 63.86 62.50 65.12 55.92 54.90 54.01 53.80 53.86 55.22 55.02 54.35 49.28 51.30 52.08 53.48 54.84 54.72 55.14 57.53 56.43 54.73 57.44 57.54 59.52 61.02 60.79
52.99 53.35 53.55 53.70 53.82 53.85 54.06 54.20 54.17 54.32 54.40 54.39 54.26 54.33 54.69 50.63 37.94 51.52 64.39 64.88 65.62 61.47 54.17 51.84 49.37 46.68 45.40 50.61 53.75 50.36 53.83 54.39 53.90 54.81 54.48 53.89 56.15 55.45 56.57 56.02 59.28 58.94 59.54 60.15 59.38
53.44 53.82 53.71 53.69 53.77 53.64 53.90 54.06 54.33 54.32 53.96 53.83 54.01 54.11 49.97 43.17 43.27 51.55 64.37 63.24 56.16 53.66 51.72 49.40 46.52 45.18 43.29 46.03 52.64 50.70 51.52 53.74 55.95 55.66 55.33 56.18 54.79 55.12 55.85 58.67 59.80 59.30 58.64 58.21 58.12
53.28 53.47 53.45 53.36 53.30 53.71 54.09 54.25 54.27 54.17 53.93 53.89 53.99 53.78 46.98 37.86 49.89 51.33 52.34 53.22 55.30 52.77 51.19 50.01 47.59 48.84 46.03 46.17 46.08 50.44 53.17 52.89 53.95 54.43 55.57 54.32 54.72 55.33 56.37 57.98 57.57 57.70 56.70 57.06 57.86
54.15 53.92 53.35 53.27 53.21 53.78 53.96 53.70 53.43 53.80 53.80 53.95 54.41 52.05 45.01 42.10 50.14 51.18 50.38 49.07 50.20 50.78 50.51 52.49 53.82 51.27 48.57 45.94 49.97 49.76 47.13 49.97 52.28 53.54 52.33 54.12 51.04 51.94 55.73 57.07 56.45 56.93 57.53 57.92 57.90
53.82 53.57 53.33 53.12 53.18 53.72 53.90 53.72 53.45 53.99 53.71 54.51 55.17 50.18 40.80 50.64 51.22 49.46 50.17 49.29 50.91 50.78 49.72 50.62 51.18 47.69 46.80 49.58 49.18 46.23 46.01 42.59 48.67 51.29 52.76 52.23 46.49 53.01 55.73 55.91 55.47 56.82 57.53 57.69 56.89
53.31 53.26 52.89 52.97 53.16 53.66 53.51 53.41 53.78 53.98 54.79 54.81 50.49 46.89 39.80 53.65 48.80 50.48 50.01 47.58 48.65 49.06 49.30 50.85 49.07 45.34 46.58 42.53 40.90 44.15 39.39 41.90 45.44 51.28 51.11 50.54 48.06 53.58 55.98 55.35 54.91 55.87 56.64 57.07 57.19
53.26 53.14 53.10 53.20 52.95 53.26 53.02 52.92 53.18 53.61 53.03 53.38 52.03 44.16 46.82 46.54 50.99 51.39 51.99 50.80 48.86 46.97 45.35 44.97 43.02 41.03 40.97 39.30 34.57 39.21 40.88 43.31 43.16 48.41 50.27 48.78 48.70 52.33 54.35 54.33 54.29 55.29 55.78 55.67 56.61
52.60 52.93 52.81 52.96 53.08 52.55 50.72 46.72 44.48 43.38 46.95 43.26 44.11 46.04 48.42 52.36 53.92 48.76 50.41 48.24 47.67 44.88 37.40 41.47 36.95 36.08 39.10 41.37 43.21 43.97 44.06 43.14 46.02 49.48 48.34 47.52 48.05 50.48 52.97 52.64 52.58 53.64 53.23 54.72 55.22
52.23 52.46 52.85 52.90 52.90 52.51 49.37 44.99 45.12 44.74 38.09 45.52 45.29 45.28 47.65 48.75 43.64 46.28 48.80 42.41 41.90 37.10 41.69 39.43 34.85 40.81 43.97 43.75 42.52 42.18 40.20 40.54 45.28 49.03 47.59 47.34 47.21 50.56 52.43 52.36 53.20 53.80 54.06 53.77 54.16
52.10 52.45 52.65 52.82 52.43 50.19 47.06 47.65 50.54 48.29 36.91 41.10 44.78 44.25 44.94 46.20 42.50 42.82 45.97 43.45 39.67 36.87 37.61 36.64 39.68 43.95 42.71 42.13 41.19 40.49 39.43 40.21 40.52 44.71 46.51 45.21 43.40 46.30 49.90 51.68 52.98 53.54 53.57 54.36 54.62
51.68 51.94 52.37 52.17 48.20 48.37 45.93 50.49 50.36 48.24 30.25 36.71 42.78 45.86 46.55 44.91 40.81 47.44 47.59 43.93 40.54 36.09 37.43 36.62 41.73 42.96 41.14 39.94 42.37 37.87 43.79 43.35 42.66 41.15 36.55 44.26 35.96 43.92 47.01 48.91 51.39 52.74 52.44 52.74 53.25
51.29 51.75 51.88 50.95 46.50 45.85 49.00 50.55 48.83 44.67 21.58 40.14 41.35 49.02 46.21 42.82 44.65 46.08 50.44 45.98 39.47 38.59 37.91 34.80 37.28 38.23 38.78 40.52 43.53 40.17 45.35 43.44 43.37 40.74 39.81 41.19 37.48 42.35 46.23 46.45 47.80 50.26 51.55 52.48 53.74
50.91 51.37 51.32 50.19 47.65 49.10 50.73 50.02 46.55 32.57 22.30 34.91 41.18 39.60 39.38 41.24 41.71 44.62 45.85 48.24 47.23 40.44 40.57 39.24 42.49 39.73 38.62 41.55 44.21 44.78 43.00 42.60 42.09 39.74 33.13 39.47 39.04 39.72 42.78 45.71 48.50 50.82 51.95 52.79 53.29
50.99 50.75 49.21 50.37 44.99 49.92 49.57 43.85 30.38 23.81 37.53 33.74 34.94 38.66 38.32 37.11 39.67 41.00 39.72 39.82 36.05 33.37 33.61 39.29 40.32 41.44 42.29 37.86 40.42 40.89 36.89 30.60 29.59 31.01 31.01 40.59 39.15 41.52 45.22 48.92 50.40 50.18 51.13 52.66 54.06
50.34 49.52 50.21 51.68 51.87 49.66 46.34 37.55 20.09 32.38 33.26 38.41 36.99 37.71 34.11 37.51 36.67 37.66 36.68 35.08 39.96 38.83 34.18 31.61 29.49 39.94 44.42 38.49 35.77 36.57 37.47 31.62 24.92 28.32 32.66 40.98 35.43 40.67 48.32 50.76 51.92 52.32 51.60 55.56 59.06
48.94 49.15 48.15 50.68 51.55 48.74 40.23 27.14 28.45 33.55 37.07 35.17 35.79 32.74 32.62 36.04 35.96 35.93 35.28 34.90 37.27 38.82 31.37 31.04 31.78 42.19 42.39 42.39 40.46 36.62 33.69 40.84 35.39 37.45 33.23 36.81 41.13 45.49 47.90 48.52 51.08 51.07 52.76 57.18 58.59
45.48 45.71 47.66 51.49 51.45 45.86 36.21 31.87 35.13 39.79 39.81 36.77 29.79 34.56 29.58 32.67 33.02 33.47 33.20 37.37 37.86 41.86 40.83 35.76 28.91 38.17 40.17 41.96 42.15 40.26 40.98 33.62 35.71 27.76 27.05 35.60 37.76 39.31 44.87 47.57 49.30 50.77 52.56 57.00 58.35
45.26 43.34 48.84 50.97 50.14 41.65 30.01 33.54 36.99 41.55 40.55 35.78 32.89 32.17 33.36 32.56 32.99 32.64 34.15 38.27 40.03 38.65 39.84 36.76 32.13 33.17 38.11 35.93 34.81 37.60 35.69 36.31 36.15 35.81 30.97 29.75 35.54 46.04 47.53 48.79 48.87 50.63 56.68 57.07 57.55
44.75 38.90 48.88 50.32 37.80 38.01 33.07 37.87 40.50 39.59 41.81 39.52 38.22 36.64 33.96 34.00 33.51 33.04 33.41 36.06 41.65 40.33 34.76 38.43 34.40 30.50 33.45 39.89 42.08 40.45 37.52 37.64 32.44 32.84 36.67 34.92 36.70 49.23 52.10 50.40 50.88 55.73 57.43 57.60 58.70
40.99 43.13 49.93 47.82 32.62 33.20 38.23 38.22 39.29 38.76 38.55 37.85 36.24 38.02 37.76 34.51 31.19 34.55 35.77 40.16 40.94 40.03 36.32 37.41 32.05 26.64 30.51 36.55 39.63 37.34 41.05 40.26 38.20 38.11 35.28 34.21 37.18 48.02 50.80 51.34 52.55 56.07 57.40 58.00 58.46
42.33 37.36 41.68 43.42 41.17 36.58 34.47 35.18 35.50 41.43 39.51 39.39 37.58 38.73 36.70 33.94 36.90 33.92 34.51 39.11 42.24 41.44 43.68 40.61 33.38 30.54 26.42 31.83 36.90 35.14 38.13 40.36 39.24 34.77 35.82 38.84 41.09 44.39 48.25 49.71 55.24 56.72 57.42 57.90 58.39
43.92 37.94 40.62 32.86 35.26 36.38 38.25 37.16 34.74 34.81 39.73 39.84 36.56 36.60 34.51 31.14 32.56 32.89 36.38 37.80 40.67 43.14 41.00 38.42 32.88 33.85 34.94 37.64 38.25 35.80 36.04 37.46 36.20 39.82 36.93 40.39 42.11 45.83 50.04 54.86 56.07 56.96 57.45 57.59 58.06
41.45 38.94 40.75 38.06 38.28 36.83 38.27 36.94 35.07 36.41 37.01 35.90 34.96 37.16 37.20 32.77 34.56 32.24 35.04 35.08 33.97 39.44 38.51 39.84 34.13 35.29 33.81 37.31 37.26 34.27 36.57 37.84 38.47 39.75 42.08 41.87 42.95 49.36 53.21 57.72 56.62 56.96 57.38 57.22 58.02
44.86 45.37 41.55 38.49 36.45 34.70 35.38 37.34 37.27 38.13 39.23 39.98 38.73 37.72 36.51 37.86 40.33 40.39 40.29 39.31 38.48 36.45 34.59 36.41 33.64 32.56 28.74 37.21 35.25 30.48 35.58 37.01 39.48 42.13 43.14 39.84 44.40 51.47 52.59 55.18 54.48 56.07 57.14 57.38 58.42

GFSSW_sfc_wetblb_030.txt.gz
Wetbulb
53.37 53.23 53.23 53.59 54.00 54.14 54.28 54.56 54.48 54.63 54.93 55.16 55.14 55.09 55.21 55.26 55.59 50.31 45.30 52.18 54.36 61.53 64.19 56.06 61.31 59.30 56.70 56.66 58.35 53.79 43.06 40.22 43.83 46.30 49.29 54.16 52.85 57.01 58.69 56.65 57.63 58.43 57.55 58.88 61.99
53.12 53.35 53.56 53.67 53.74 54.02 54.16 54.39 54.33 54.52 54.42 54.74 54.90 54.85 54.97 55.37 50.14 46.77 53.57 60.05 62.04 64.84 57.31 53.49 51.88 57.33 55.73 55.99 56.23 52.70 45.35 44.33 48.65 50.65 49.64 52.09 53.02 53.98 55.47 55.41 56.38 57.80 60.54 61.98 61.48
53.51 53.25 53.67 53.90 54.04 53.97 54.13 54.19 54.28 54.51 54.46 54.42 54.54 54.57 54.59 53.78 44.45 45.12 62.15 61.15 61.43 62.94 56.65 54.15 53.14 51.40 50.37 54.48 54.03 53.16 49.68 51.32 51.00 51.71 52.37 51.61 52.37 55.14 53.66 52.14 55.27 56.08 57.83 59.67 59.70
53.72 53.79 53.81 53.76 53.76 53.59 53.71 53.81 54.15 54.35 54.25 54.22 54.03 54.18 54.47 49.52 32.19 49.64 62.76 63.29 65.10 61.76 55.43 51.56 48.65 46.06 43.42 47.33 54.35 48.58 54.30 55.49 54.91 55.36 53.63 51.81 53.47 52.90 54.13 54.07 57.60 57.94 58.27 58.32 57.94
53.74 53.89 53.68 53.53 53.41 53.54 53.62 53.55 53.76 53.87 53.87 53.83 53.90 53.88 49.32 42.11 42.82 47.87 58.38 55.30 52.17 59.79 52.42 49.19 46.47 44.41 41.01 43.25 45.82 46.90 51.41 53.45 54.09 54.52 54.41 54.71 52.73 52.83 53.63 56.65 58.31 59.00 58.55 57.02 56.00
53.40 53.52 53.50 53.52 53.63 53.60 54.01 54.01 53.94 53.47 53.33 53.39 53.83 53.16 45.51 36.13 47.44 49.88 50.38 50.02 49.39 47.45 51.37 48.18 46.15 46.44 43.76 42.88 43.13 45.51 46.42 49.50 51.82 51.59 52.33 52.13 53.27 54.55 55.52 57.85 57.48 57.22 56.27 55.90 55.74
53.49 53.66 53.60 53.74 54.05 54.19 54.07 53.82 53.57 53.69 53.54 53.79 54.05 51.64 44.81 41.28 49.64 48.73 47.67 45.69 47.97 48.40 46.12 49.69 49.81 47.64 45.75 42.46 46.30 46.22 42.93 46.24 47.82 48.66 50.25 53.14 49.70 50.76 55.61 56.28 55.07 55.09 55.21 55.82 56.36
52.04 53.06 53.04 53.27 53.76 53.92 54.01 53.67 53.67 53.94 54.68 54.69 54.30 50.31 40.95 49.83 49.89 48.34 48.76 47.80 49.31 49.43 48.46 48.88 47.99 44.80 44.87 46.50 46.14 42.83 41.97 39.96 46.49 48.54 48.99 49.41 44.21 52.44 54.49 53.50 53.27 54.60 55.71 56.55 56.95
52.20 53.06 52.93 52.93 52.94 53.12 53.55 53.23 54.04 54.89 55.08 54.54 49.50 46.33 39.66 52.32 48.71 50.56 49.15 45.97 47.71 48.51 47.47 49.52 45.66 43.11 43.48 39.80 36.97 39.90 38.11 39.43 42.73 48.96 48.64 48.12 45.23 50.89 53.38 53.14 52.37 53.38 54.55 55.62 56.40
52.81 52.69 52.85 52.77 52.85 53.06 53.11 53.02 53.37 53.46 52.74 53.08 51.45 44.05 45.60 45.57 50.81 51.96 50.91 49.24 46.59 45.84 44.68 42.89 39.69 38.38 36.62 35.98 33.10 36.63 38.14 40.95 40.55 45.88 47.92 46.29 46.18 50.04 52.03 52.27 52.14 52.94 54.18 54.79 55.55
51.83 52.23 52.36 52.83 53.10 53.04 50.66 45.73 42.38 39.70 42.77 39.47 41.41 42.97 45.22 48.22 49.89 47.44 51.44 47.57 47.33 43.40 35.75 38.70 33.46 32.85 37.17 39.44 40.42 41.63 40.47 40.44 43.37 46.84 45.93 45.66 46.09 48.43 50.95 51.49 50.48 51.75 52.90 53.67 53.85
51.37 51.39 52.31 52.69 53.07 52.76 47.93 43.05 43.59 43.18 36.27 44.43 44.00 44.05 46.82 47.22 41.55 44.68 48.28 41.90 40.32 34.92 38.41 35.13 32.34 38.20 40.52 41.04 39.94 38.92 37.43 37.57 41.52 44.82 45.33 44.94 44.81 48.27 50.16 50.57 51.29 51.73 52.25 52.78 52.72
51.57 51.72 52.07 52.35 52.13 47.82 44.66 45.23 47.64 45.45 34.93 39.82 45.13 45.27 45.59 45.66 41.54 41.95 45.17 42.45 38.18 35.37 35.40 33.16 37.44 42.08 39.60 38.51 38.13 38.39 36.62 37.91 38.26 42.30 43.85 41.28 40.04 42.78 46.71 48.35 49.31 50.37 51.89 52.36 53.13
51.28 51.55 51.78 51.55 46.32 45.36 44.55 48.45 47.18 44.75 30.12 36.36 41.64 43.86 45.54 44.22 40.39 46.70 46.87 43.13 38.86 34.53 35.96 34.62 38.46 37.87 38.13 37.02 38.38 34.63 41.50 41.17 39.84 38.00 33.12 41.06 32.39 40.38 44.06 45.54 47.60 48.96 49.20 51.20 51.92
51.29 51.64 51.33 50.82 44.19 42.58 47.27 46.62 46.47 42.37 18.09 38.67 41.14 48.99 46.07 42.26 43.27 44.55 50.37 46.42 37.83 36.84 35.99 33.41 35.48 35.39 35.65 37.65 41.55 36.44 42.30 41.35 40.83 37.42 36.20 37.12 33.13 39.25 43.18 43.26 46.01 48.30 49.89 51.59 52.01
51.25 51.31 51.21 46.85 44.55 46.37 48.94 46.15 43.48 27.72 16.87 34.42 40.25 38.92 39.03 41.31 41.52 44.38 44.54 46.55 45.36 40.86 38.40 36.64 40.20 38.37 36.86 39.05 39.45 40.40 39.93 39.24 39.22 35.21 28.79 35.94 35.05 36.38 39.71 42.62 45.43 48.28 49.33 50.72 50.84
51.11 50.82 49.40 48.91 42.16 47.03 45.85 41.05 26.01 19.80 36.81 33.06 34.19 36.76 36.58 36.31 38.26 39.78 38.36 37.32 34.59 32.14 30.59 37.46 38.46 42.11 43.27 36.55 38.69 36.51 30.63 26.10 24.17 25.99 28.24 37.93 35.10 38.36 42.23 44.80 46.37 47.29 49.10 50.40 49.97
50.38 49.60 47.58 48.90 46.62 46.89 42.51 33.05 17.68 31.32 32.56 37.89 36.53 36.12 33.13 35.85 36.41 37.44 36.11 33.51 39.05 37.27 32.69 30.15 28.55 38.27 43.13 38.98 33.20 32.69 31.51 25.87 21.02 23.40 29.32 38.41 32.09 37.35 45.04 47.75 48.85 49.64 50.09 50.54 53.87
49.07 43.52 44.97 47.31 48.22 45.01 36.50 24.27 26.58 32.65 36.00 35.12 34.69 31.37 31.41 35.42 35.37 34.87 34.30 33.30 37.04 37.80 29.95 29.89 30.58 40.87 41.27 40.83 38.61 34.07 30.20 34.63 29.78 33.64 28.79 33.78 37.67 42.45 46.07 46.35 47.41 47.37 50.18 54.46 55.81
43.04 41.43 43.18 48.63 47.52 42.56 32.98 29.84 32.96 38.62 38.81 37.63 29.05 32.59 28.44 31.35 31.35 32.20 33.32 38.15 36.69 39.53 38.17 33.83 27.13 36.99 39.15 40.72 39.64 36.90 39.14 28.60 28.63 23.78 22.53 31.07 33.85 36.44 41.21 43.62 45.94 45.93 52.58 54.74 55.97
41.17 40.12 45.87 48.02 46.75 37.69 26.04 30.82 36.20 40.90 41.01 36.09 33.32 31.45 32.09 31.65 32.58 32.24 33.18 37.48 39.45 38.10 38.75 34.39 30.55 31.68 36.92 34.55 32.33 32.78 32.50 32.19 31.48 30.20 27.65 25.23 31.41 41.16 42.94 44.53 45.65 45.85 54.64 55.21 56.65
39.40 35.50 45.97 46.89 34.08 28.68 28.52 36.47 39.99 38.63 41.39 38.94 37.60 35.22 33.16 33.48 32.17 32.62 32.44 35.88 41.07 40.50 35.23 37.68 32.15 28.54 30.92 37.55 40.91 37.15 33.81 33.03 26.61 26.60 31.35 30.81 33.38 45.36 45.88 46.02 49.35 50.82 55.86 56.13 56.92
37.13 37.99 46.29 43.99 27.60 27.74 33.95 36.65 39.06 36.86 37.99 37.07 35.57 36.81 36.64 33.36 29.77 34.23 35.61 40.62 40.67 38.57 36.05 36.65 29.48 24.03 26.04 32.90 37.68 35.79 37.52 38.25 34.78 33.03 30.79 29.41 32.42 44.76 45.85 46.34 53.07 54.76 55.52 56.53 57.16
37.59 33.83 36.39 37.00 35.88 30.89 31.64 34.32 35.21 40.26 38.91 38.95 36.82 37.06 34.73 32.76 34.02 32.25 33.56 38.81 41.20 40.13 43.56 40.77 32.29 28.46 21.74 28.76 34.58 33.68 36.41 37.82 34.91 28.73 32.04 33.32 36.54 42.15 44.29 44.49 53.74 53.66 55.74 56.51 57.63
38.28 33.41 35.90 29.32 33.09 33.82 34.00 34.94 35.15 35.78 38.70 38.50 35.44 35.71 34.06 31.42 31.80 31.16 35.12 36.60 39.25 41.62 40.58 36.69 31.04 32.85 33.03 34.71 35.26 35.44 35.81 36.64 34.44 34.89 31.67 36.03 37.68 42.19 44.34 46.03 51.51 54.83 55.96 56.42 57.03
35.34 35.72 37.90 35.79 35.71 33.04 33.77 33.84 35.31 36.01 36.78 35.03 34.09 36.32 36.09 33.91 34.58 33.28 34.51 34.20 33.30 35.84 36.17 37.38 30.83 34.93 31.32 35.41 35.59 34.13 36.94 37.04 36.76 36.69 36.87 37.77 39.04 45.72 46.13 52.08 53.65 55.40 56.07 56.35 57.05
39.09 40.26 39.91 37.76 33.98 31.45 30.57 34.93 36.12 38.22 38.48 39.49 37.62 36.61 35.38 37.59 40.54 39.63 39.31 38.38 36.95 33.67 32.69 34.99 33.59 31.80 26.72 34.37 34.88 29.84 35.32 36.73 39.20 39.57 39.70 35.39 41.61 46.70 51.24 53.59 54.35 55.62 56.55 56.83 57.50

GFSSW_sfc_wetblb_033.txt.gz
Wetbulb
53.33 53.31 53.45 53.71 53.94 53.95 54.22 54.19 54.42 54.57 54.60 54.73 54.80 54.90 54.87 54.72 54.84 49.50 43.32 49.15 53.02 59.80 63.01 54.56 60.43 58.51 54.81 54.37 56.61 50.78 41.40 39.37 42.95 45.10 47.47 52.55 52.19 56.08 57.61 55.73 56.14 56.87 56.87 58.77 61.24
53.10 53.17 53.38 54.01 53.83 53.80 53.83 53.95 54.12 54.29 54.46 54.66 54.60 54.45 54.36 54.50 49.16 45.66 51.75 56.96 60.04 62.42 54.70 49.81 48.08 56.45 51.16 52.27 54.27 48.66 41.38 42.43 47.24 49.18 48.31 50.10 50.20 52.19 53.52 53.65 53.64 55.04 58.95 59.98 60.30
53.22 53.53 53.85 53.95 53.84 53.66 53.62 53.66 53.80 54.02 54.22 54.18 54.17 54.12 54.07 52.93 41.50 40.02 61.87 60.66 61.98 61.66 57.72 55.10 52.69 52.01 50.12 52.83 52.25 51.31 47.15 49.22 49.87 51.02 51.40 50.84 49.93 52.93 52.07 50.54 53.40 54.18 56.37 58.05 58.44
53.07 53.44 53.87 53.70 53.76 53.69 53.83 53.73 53.95 54.08 53.85 53.76 53.62 53.70 53.51 48.00 30.85 44.68 62.38 58.95 59.43 55.67 55.87 52.28 49.23 45.66 42.77 45.99 52.05 48.41 52.50 53.95 53.16 53.35 52.86 52.04 53.76 51.74 51.86 52.39 55.69 56.65 57.28 57.12 56.86
52.63 53.53 53.54 53.48 53.58 53.62 53.60 53.68 53.72 53.93 53.71 53.35 53.49 53.21 48.58 40.37 39.38 47.19 55.42 52.81 50.20 50.07 55.73 49.79 45.89 45.57 40.73 42.17 45.95 46.35 50.78 52.29 54.22 53.94 54.79 55.70 53.44 52.88 53.12 55.75 56.73 57.11 57.14 56.74 56.63
52.34 52.65 52.79 53.28 53.20 53.30 53.71 53.83 53.60 53.40 52.83 53.23 52.80 52.29 45.66 37.10 47.27 48.32 48.25 47.65 46.80 45.64 46.06 49.64 45.61 46.07 43.26 41.64 43.89 44.02 46.24 47.62 49.63 50.48 50.37 50.35 50.97 52.14 53.70 56.70 56.70 56.94 56.41 55.54 54.87
52.79 53.07 53.07 53.17 53.65 53.79 53.75 53.54 53.52 53.17 53.69 53.66 53.31 50.63 45.12 41.49 49.18 49.01 48.21 45.70 45.72 46.34 44.12 46.17 49.17 45.82 43.94 40.47 44.32 43.85 40.77 44.71 45.49 45.35 45.63 49.88 47.28 48.58 53.25 55.02 54.43 55.45 55.10 55.16 54.54
52.35 53.01 52.45 52.57 52.82 53.34 53.91 53.85 54.06 54.24 54.94 54.33 53.89 49.52 41.47 49.56 49.03 47.25 48.00 46.63 47.80 47.60 46.71 47.47 46.87 42.90 43.31 44.01 43.92 40.90 39.09 37.14 44.31 46.22 47.03 48.07 42.87 49.91 53.20 53.41 53.09 53.89 53.60 54.33 55.18
51.74 52.47 51.93 52.13 52.24 52.92 53.73 53.61 54.46 55.35 54.61 54.83 49.06 45.62 39.93 51.78 48.36 50.60 48.48 46.24 46.73 47.06 46.66 49.45 43.98 41.13 41.93 38.11 35.59 37.80 36.17 37.61 41.42 47.13 46.69 46.37 43.80 49.69 52.30 51.86 51.22 52.09 53.00 53.56 53.90
51.65 51.91 51.87 51.86 52.26 52.93 53.10 53.21 53.82 52.58 52.98 53.06 50.84 40.90 42.88 42.78 47.43 49.05 50.01 48.31 45.40 44.73 43.02 41.69 38.61 36.17 34.52 34.90 31.34 34.30 35.59 38.29 38.47 43.65 45.51 44.16 44.23 48.30 50.28 49.94 49.88 50.36 51.48 52.30 53.20
51.38 51.43 51.79 52.35 52.18 52.48 50.02 44.93 41.25 39.31 40.59 38.62 40.66 40.83 42.98 47.15 49.36 46.76 48.48 45.92 44.84 42.27 34.59 37.60 32.28 31.45 36.19 38.41 39.23 37.66 37.28 36.61 40.93 44.75 44.04 43.06 43.70 46.11 48.66 49.28 49.54 50.65 51.75 52.23 52.70
51.28 51.26 51.51 52.31 52.52 52.29 45.87 41.68 42.51 42.49 35.31 43.43 43.00 42.89 45.85 46.66 41.53 44.87 47.70 40.59 39.35 33.62 36.32 33.25 31.60 37.08 38.64 38.62 37.87 36.95 34.85 34.58 39.68 43.15 41.28 41.76 41.88 44.89 47.17 48.10 49.42 49.84 50.07 50.55 51.54
50.96 51.16 51.47 51.83 51.72 46.47 42.93 44.52 46.90 43.21 33.62 38.90 42.74 43.41 44.20 44.82 41.51 41.67 44.36 41.11 36.98 33.40 33.04 30.50 34.79 40.08 37.98 36.09 35.48 35.13 34.36 35.26 35.84 40.62 41.83 39.57 38.28 40.85 44.28 45.41 47.42 48.67 49.82 49.77 50.14
51.16 51.35 51.45 51.13 45.50 43.78 42.97 47.44 46.01 42.99 28.04 35.51 40.25 43.38 44.09 44.07 40.05 46.82 46.72 41.97 37.15 32.95 34.11 32.19 36.64 36.30 34.81 34.74 35.93 31.04 38.69 39.01 38.34 35.50 30.89 38.62 30.06 38.47 41.90 43.04 45.19 45.87 47.01 48.21 49.63
51.23 51.13 51.29 50.66 43.63 42.40 45.98 45.87 46.23 40.55 14.51 37.62 39.23 46.52 43.78 40.95 41.43 43.55 48.70 44.76 37.21 36.71 34.09 31.57 33.39 33.02 33.33 34.75 37.96 34.28 38.54 37.59 38.17 35.14 31.82 33.80 29.80 36.84 39.17 39.72 42.41 44.89 46.34 47.89 49.49
51.23 51.18 50.68 46.02 43.06 45.83 46.76 44.87 41.62 26.01 15.79 33.85 39.08 37.80 36.92 39.22 40.33 43.56 44.24 46.37 44.19 38.68 38.29 35.77 39.00 37.17 35.33 37.82 37.79 38.67 35.88 35.76 35.40 32.14 24.87 33.32 31.83 33.70 37.15 40.07 42.12 45.00 46.49 47.79 48.11
51.12 50.53 49.14 47.93 41.24 44.86 44.44 38.39 25.39 18.80 35.52 32.24 33.58 36.80 35.02 35.13 37.08 38.86 37.42 36.72 33.41 30.21 30.42 35.90 34.34 38.35 39.06 34.10 37.21 34.72 28.35 22.59 21.50 22.46 25.01 35.15 32.40 35.58 39.26 42.18 43.18 43.78 45.49 46.86 47.53
50.39 49.69 47.18 47.77 45.59 45.01 40.01 31.53 16.97 30.21 31.54 37.42 36.40 35.63 31.62 34.86 35.44 36.25 34.85 32.89 38.31 36.13 31.74 28.97 26.92 36.43 41.72 36.93 33.40 31.25 29.52 22.89 19.99 22.29 26.17 35.93 30.15 35.66 42.24 45.21 46.51 46.74 45.94 46.48 46.86
48.69 42.10 42.12 45.73 47.44 43.61 34.72 23.42 26.02 31.53 36.02 34.60 34.95 30.23 30.01 33.81 34.06 33.06 32.12 33.54 36.51 37.15 30.99 29.82 30.11 40.25 40.84 40.66 37.64 32.26 27.77 33.52 26.91 28.80 25.16 30.83 35.04 40.60 43.87 44.25 44.62 44.87 44.83 44.89 48.99
40.51 40.51 42.44 46.71 45.96 40.53 31.48 29.25 31.20 37.92 38.51 37.08 29.36 32.35 27.21 30.17 30.32 29.94 31.20 37.06 36.11 39.25 38.38 33.19 26.86 36.44 38.96 39.66 39.36 34.81 37.15 26.87 25.15 21.21 20.78 27.70 30.60 33.88 38.59 41.75 43.02 43.99 44.35 46.83 53.96
39.87 38.61 44.60 46.66 44.53 35.85 25.50 29.34 35.01 40.16 39.39 35.80 32.92 31.07 30.98 30.41 31.36 30.27 32.68 36.81 39.12 37.81 39.33 32.87 29.66 31.33 35.28 32.72 29.54 31.59 30.22 31.37 29.63 27.03 22.77 22.96 27.90 38.59 40.45 41.92 42.43 43.83 46.70 50.29 54.37
36.85 33.81 45.18 44.50 33.31 24.98 26.84 34.76 39.41 38.31 40.15 38.29 36.94 34.28 31.93 32.65 30.73 31.41 31.95 35.58 40.58 38.95 34.25 35.72 30.43 27.18 29.85 35.25 38.42 35.41 33.44 32.30 25.63 25.47 28.80 27.06 29.46 42.46 40.55 40.93 43.53 46.00 50.53 53.81 55.50
37.49 35.48 44.38 42.12 25.14 25.41 31.89 35.09 37.60 37.48 37.24 36.77 35.27 36.21 35.36 31.99 29.04 32.86 34.77 40.03 39.50 37.75 34.51 34.96 28.15 23.71 24.79 31.14 35.80 32.53 35.48 34.32 32.21 30.11 27.56 24.80 28.99 42.26 41.79 43.07 49.44 51.74 53.44 54.92 56.79
38.94 32.41 34.84 35.19 33.95 29.50 30.20 32.16 34.06 39.59 38.28 38.64 35.93 36.54 33.87 31.96 34.22 32.20 33.01 37.69 39.43 39.45 42.83 39.09 32.53 27.36 23.15 26.81 32.62 29.75 34.14 36.42 33.61 27.02 29.38 31.46 33.18 38.90 40.80 42.08 44.26 50.24 53.35 53.89 56.91
36.51 32.24 34.10 28.33 30.60 32.59 31.34 32.82 33.02 33.58 38.85 39.00 35.07 35.14 34.42 31.32 32.43 31.69 34.04 35.96 38.14 39.98 38.00 35.47 29.03 30.85 32.04 33.51 34.11 33.24 33.03 33.98 33.50 34.04 29.49 33.22 33.62 39.26 41.27 44.07 45.92 48.25 53.86 55.36 56.23
33.34 33.03 35.34 32.71 34.45 34.32 32.30 31.69 33.85 34.94 35.97 34.68 34.60 36.00 35.39 32.45 33.72 31.90 34.98 34.71 34.05 35.47 33.55 34.66 28.00 32.80 30.59 34.21 33.67 32.12 34.41 35.38 35.53 36.35 35.36 35.46 34.73 43.49 44.93 47.33 51.89 51.71 54.54 55.33 56.23
36.99 37.51 35.76 32.86 32.03 31.98 30.68 34.78 34.47 36.56 37.08 38.97 37.65 36.37 33.89 35.27 38.62 38.01 38.05 38.03 37.69 35.11 31.18 32.60 31.19 27.70 24.63 32.10 32.81 28.42 34.00 35.03 36.54 37.64 36.52 33.20 38.97 44.85 46.99 50.25 51.96 52.17 55.23 56.12 56.90

GFSSW_sfc_wetblb_036.txt.gz
Wetbulb
53.41 53.43 53.76 54.11 53.96 53.85 53.89 54.01 54.09 54.22 54.29 54.55 54.70 54.57 54.48 54.54 54.59 49.31 42.45 47.32 52.45 59.89 61.06 54.10 58.32 58.31 54.63 54.10 55.07 48.82 39.73 37.45 41.75 44.56 46.28 50.91 47.08 53.47 55.53 53.82 54.28 56.27 56.41 58.06 60.02
53.15 53.31 53.41 53.99 54.06 53.90 54.00 54.02 53.98 54.11 54.26 54.31 54.23 54.08 54.14 54.33 48.11 44.52 49.77 55.16 57.48 60.62 54.20 49.11 46.83 55.17 47.20 49.71 53.66 47.12 39.23 41.41 46.25 48.64 48.11 50.12 48.32 50.06 51.84 51.28 52.06 54.14 57.61 58.47 59.50
53.01 52.97 52.99 53.65 53.82 53.77 53.91 54.02 53.96 54.17 54.14 53.95 53.80 53.67 53.78 52.27 38.70 37.79 60.73 58.24 59.24 59.52 56.44 53.98 52.58 50.38 49.83 51.41 50.50 50.17 44.89 46.46 46.96 49.37 50.31 50.30 49.58 51.11 49.70 48.54 51.63 51.71 54.35 55.85 56.79
52.32 53.08 53.34 53.27 53.62 53.53 53.67 53.69 53.95 54.12 53.96 53.63 53.02 52.71 53.62 46.44 30.00 42.95 58.08 55.61 55.93 51.30 54.57 51.30 48.48 43.61 42.69 47.25 52.03 47.11 51.40 51.99 51.27 52.55 51.37 49.69 52.25 50.78 51.18 50.79 54.07 54.49 54.97 54.93 55.56
52.70 53.06 53.05 52.97 53.19 53.11 53.29 53.62 53.95 53.89 53.44 53.11 53.06 52.80 46.45 39.08 38.75 47.06 54.51 51.86 47.91 46.63 48.35 49.79 45.64 44.33 39.25 41.98 46.77 49.41 50.15 52.38 54.83 55.05 53.84 54.86 53.49 52.87 53.64 56.80 56.82 57.02 57.19 56.22 55.05
52.17 52.21 52.60 52.65 52.88 52.93 53.28 53.73 53.83 53.36 53.29 53.33 53.32 52.46 43.57 34.40 46.92 48.48 48.19 49.31 46.51 42.74 43.56 48.36 44.96 45.85 43.68 40.99 44.46 43.34 46.03 49.50 50.79 50.83 51.01 50.37 50.83 50.36 52.28 55.91 55.66 55.90 55.75 55.94 55.50
52.46 52.14 52.25 52.31 52.60 53.05 53.49 53.86 53.90 53.84 54.08 54.00 53.30 50.45 43.16 39.46 48.69 49.34 47.84 45.48 45.44 46.21 42.10 44.72 49.68 45.93 42.73 40.06 42.98 42.58 39.95 42.05 43.56 45.26 47.53 50.70 47.29 48.38 52.84 53.89 53.02 53.81 54.44 55.15 55.93
52.04 51.78 51.93 52.14 52.43 52.74 53.45 53.90 53.94 55.01 55.28 54.44 53.61 47.46 38.95 48.83 48.72 47.77 47.04 46.06 47.51 46.80 45.15 45.90 45.27 41.31 41.38 43.47 42.44 39.25 38.01 36.70 43.94 43.82 45.49 47.69 42.39 49.77 52.32 52.57 52.02 52.92 53.33 54.10 54.72
51.77 52.25 51.70 52.06 52.45 52.87 53.32 53.33 54.16 55.28 54.98 54.55 47.48 43.97 38.37 50.43 47.24 49.72 48.09 45.43 46.17 46.31 45.29 48.43 42.98 39.57 40.27 37.06 34.01 35.90 35.59 34.85 39.00 45.07 45.34 44.89 42.90 48.29 50.92 50.31 50.31 50.70 50.78 51.76 52.56
51.56 52.02 51.85 51.98 52.53 52.91 52.75 53.39 53.34 53.19 53.20 52.48 50.41 39.86 41.71 42.05 46.79 47.94 48.68 47.65 44.65 43.34 41.90 40.20 37.49 34.51 33.26 33.75 29.74 31.94 33.28 36.81 36.60 41.50 43.97 41.82 42.98 46.70 48.75 49.19 49.48 50.17 50.45 50.29 51.15
51.37 51.58 51.96 52.23 52.27 52.53 49.37 43.54 40.34 38.72 40.35 37.44 39.42 40.06 41.89 46.06 48.58 45.92 47.78 45.17 43.69 40.54 33.03 36.11 31.13 29.85 34.42 37.06 38.23 36.29 34.53 34.29 38.40 42.77 41.45 41.47 42.61 44.97 47.09 47.06 47.53 48.84 49.70 50.62 51.47
51.39 51.16 51.46 51.81 52.00 51.98 44.12 40.99 41.95 41.97 35.04 42.80 41.43 41.54 44.59 45.29 40.82 44.19 46.47 39.28 38.00 33.08 34.50 31.68 28.07 35.20 37.81 37.75 36.59 35.54 32.46 32.31 37.15 40.98 39.35 38.52 38.02 41.33 43.30 44.40 46.41 47.75 48.38 48.75 49.37
51.15 50.60 50.81 51.36 51.47 45.78 42.07 43.51 44.94 41.57 33.13 37.89 41.58 41.09 43.07 42.98 40.42 40.81 43.36 39.98 35.72 32.31 32.08 29.01 32.23 37.86 36.35 34.87 33.82 33.07 32.19 32.70 33.77 38.72 40.01 37.95 36.74 39.99 43.46 43.60 45.18 46.10 47.25 48.48 49.54
51.26 50.46 50.46 50.43 44.49 42.56 41.67 45.73 45.14 42.41 27.06 33.32 38.60 41.15 42.58 42.23 38.35 45.67 45.45 40.94 36.15 32.13 33.48 30.78 35.18 34.77 33.29 32.92 34.87 29.68 36.85 36.87 36.75 33.70 28.84 36.51 27.99 37.14 40.79 42.01 43.36 44.08 44.96 46.59 46.79
50.79 50.46 50.06 50.14 41.93 41.52 44.48 44.85 43.30 39.12 14.29 35.94 37.84 45.25 43.53 37.51 39.50 41.52 47.90 42.84 35.25 34.67 33.75 32.05 32.34 31.28 31.24 32.78 36.22 32.17 37.42 35.57 36.22 32.44 30.11 32.46 27.92 35.48 36.99 37.68 39.17 42.65 44.75 45.77 47.24
51.02 50.42 50.00 45.53 42.61 44.17 45.48 43.18 40.51 26.14 15.22 32.56 38.12 36.64 36.45 38.36 38.70 41.31 41.57 45.25 43.55 38.28 38.13 36.13 39.31 35.40 34.05 36.64 36.78 38.19 35.17 33.99 32.09 29.95 23.58 30.72 30.27 32.36 35.31 38.10 40.31 41.85 43.70 44.79 44.89
50.84 50.36 48.18 47.04 40.16 43.55 42.89 37.37 25.34 18.45 34.08 31.29 32.53 35.63 34.72 33.56 35.33 37.04 35.65 33.81 32.15 29.26 30.52 35.39 34.17 38.05 37.62 32.03 34.48 32.60 27.26 20.86 19.59 19.97 22.08 32.84 29.95 33.76 36.51 40.21 41.11 42.47 43.67 44.77 45.55
50.11 47.54 47.18 46.96 43.69 44.38 37.99 30.08 16.18 29.19 30.21 36.78 35.34 34.86 30.64 33.15 33.10 34.78 32.95 30.70 37.55 35.64 31.91 29.80 25.78 33.30 38.70 33.92 30.07 29.42 28.14 21.15 19.70 20.36 22.34 32.90 27.76 33.18 40.66 43.37 43.78 44.16 43.84 44.25 44.36
47.79 41.94 41.48 44.20 46.54 41.85 34.69 22.69 25.10 30.06 35.40 33.84 34.09 29.64 28.80 32.15 32.35 31.56 30.30 31.32 36.19 37.32 30.34 29.89 28.99 38.14 39.62 39.02 36.44 30.79 25.98 32.45 25.30 26.66 22.50 27.01 32.14 37.95 41.55 42.42 42.70 42.68 43.54 43.81 44.18
39.35 39.80 41.94 45.51 44.33 39.41 31.27 29.24 29.52 36.68 37.72 35.94 28.98 31.44 26.29 28.64 28.91 28.86 29.30 35.72 35.28 38.81 38.35 33.98 26.41 36.18 38.32 40.09 38.91 33.42 34.51 25.05 22.63 19.69 19.46 25.20 27.94 30.77 36.86 38.42 41.77 42.48 42.67 43.89 44.78
38.46 38.02 43.47 44.78 42.87 35.25 25.21 28.30 33.57 39.08 39.18 35.03 32.44 30.98 30.08 29.46 29.86 28.75 31.03 35.91 38.25 37.44 38.22 34.82 29.13 31.74 35.38 32.39 30.21 31.80 28.09 28.89 26.48 24.54 21.57 21.78 26.13 36.04 37.71 39.41 40.03 41.93 47.33 48.09 48.15
36.09 33.49 43.67 42.60 32.03 23.36 24.87 32.29 38.37 37.30 39.45 37.38 36.32 33.70 31.29 31.53 29.61 30.05 30.38 34.59 39.86 38.22 33.34 35.66 31.06 26.79 29.12 34.69 36.62 33.33 30.84 30.75 24.96 24.15 26.70 24.11 25.68 38.47 38.68 39.43 41.49 44.20 49.24 53.53 53.08
38.08 37.20 43.00 40.01 23.17 23.12 30.46 33.74 36.12 36.37 36.10 36.43 35.39 35.73 34.75 32.00 29.28 31.91 33.35 38.69 38.01 36.96 33.61 34.90 29.35 23.86 25.05 30.88 34.33 30.89 32.97 31.94 29.94 28.11 24.68 22.69 26.44 39.33 40.88 41.62 43.23 43.70 48.39 54.30 55.91
39.03 30.74 34.26 34.28 32.25 28.60 30.34 31.66 32.83 38.28 37.63 37.64 35.48 36.71 34.71 32.12 33.42 31.86 33.16 37.09 38.15 37.91 42.15 38.42 31.39 27.42 20.67 25.49 30.26 28.65 31.97 33.26 32.63 26.29 26.83 28.54 30.99 36.96 39.68 40.08 42.65 44.59 47.60 53.39 56.01
34.60 30.87 34.46 27.28 27.84 28.86 33.63 33.46 32.17 32.37 38.40 37.23 35.15 35.36 34.93 32.56 31.85 31.35 34.27 35.07 38.22 39.97 36.49 33.66 29.38 30.30 30.45 32.42 32.79 32.01 31.41 32.14 31.48 32.04 29.15 31.36 32.28 36.89 39.31 40.87 43.07 45.31 50.52 54.74 55.75
28.85 31.07 33.66 30.07 31.37 29.70 30.90 31.66 32.71 33.75 34.19 33.38 34.07 35.77 36.00 32.61 32.45 31.38 33.70 34.34 34.24 36.70 34.83 37.33 30.10 29.91 28.51 32.30 32.93 30.61 32.32 32.77 33.02 33.35 33.28 34.48 34.02 41.31 42.17 43.69 46.55 49.54 52.24 54.51 55.87
38.79 34.94 34.95 32.05 28.60 26.63 27.19 31.50 32.48 35.41 36.64 37.91 36.69 36.00 33.42 35.46 38.63 38.51 38.09 37.17 36.75 35.43 34.48 34.50 32.57 25.99 23.08 30.38 30.30 25.08 30.50 32.73 33.30 35.18 34.86 30.94 35.61 41.46 43.41 46.07 46.68 49.52 52.26 54.83 56.53

GFSSW_sfc_wetblb_042.txt.gz
Wetbulb
53.49 53.82 53.79 53.99 54.04 54.18 54.20 54.30 54.45 54.58 54.69 54.88 55.11 54.96 54.91 54.74 54.81 53.59 48.49 52.07 54.52 60.28 60.50 54.82 52.00 59.11 61.01 60.36 59.50 58.30 51.14 49.23 49.21 48.91 48.91 52.83 52.77 56.14 58.25 59.25 60.81 61.46 62.33 63.30 65.76
53.32 53.69 53.81 53.80 53.92 53.89 54.01 53.99 54.14 54.56 54.71 54.74 54.70 54.80 54.56 54.36 52.99 49.34 55.66 56.28 58.03 59.43 53.35 51.23 49.29 55.18 56.26 56.18 58.20 54.68 51.25 51.41 54.32 53.06 49.91 51.30 53.24 54.86 56.08 56.96 59.79 60.50 62.30 62.95 64.18
53.13 53.40 53.46 53.72 53.74 53.75 53.97 54.10 54.47 54.74 54.90 54.95 54.64 54.49 54.23 54.41 48.67 50.24 58.69 56.20 58.10 58.33 53.65 54.16 53.02 50.27 52.21 56.01 55.81 56.02 51.52 54.99 55.23 54.77 52.60 51.32 53.26 55.99 54.62 54.69 60.15 60.25 61.29 62.01 62.08
53.26 53.60 53.53 53.56 53.64 53.62 53.88 54.25 54.63 54.93 54.55 54.77 54.33 54.30 53.96 52.67 40.22 51.17 55.95 57.10 57.48 55.40 53.99 53.90 52.23 48.17 48.66 49.78 54.75 52.07 55.61 55.84 56.15 56.30 52.77 51.40 53.52 53.70 54.73 55.16 60.07 60.73 61.32 61.41 62.44
52.89 53.14 53.21 53.05 53.34 53.57 53.81 54.22 54.71 54.61 54.61 54.53 54.19 54.13 53.85 47.42 46.55 52.91 55.57 56.78 54.55 52.33 49.28 48.40 50.33 49.31 46.34 49.30 51.39 51.61 53.21 55.46 56.17 56.05 55.93 55.10 53.35 53.99 55.36 57.83 58.91 59.37 60.10 60.92 62.40
52.51 52.57 52.71 52.84 53.11 53.39 54.11 54.27 54.57 54.57 54.84 55.09 54.26 53.77 51.02 44.12 52.42 54.69 54.98 54.92 53.94 52.39 49.98 48.93 49.50 51.81 49.39 48.40 48.95 51.78 52.27 53.17 55.00 55.41 56.22 54.56 55.44 56.65 57.52 60.18 60.11 61.09 61.50 62.22 61.87
52.96 52.46 52.46 52.60 52.83 53.37 54.23 54.25 54.39 54.59 55.56 55.07 54.38 53.85 49.89 46.92 53.84 55.55 55.36 54.07 53.93 52.08 50.00 50.75 49.96 49.31 50.42 47.84 50.91 50.33 47.71 50.37 52.32 53.88 53.95 55.27 52.81 54.41 58.10 59.42 59.05 60.33 61.05 61.39 62.08
53.00 52.85 52.31 52.48 52.68 53.31 54.00 54.35 54.12 55.03 55.86 55.11 54.57 53.85 47.17 53.52 55.86 54.22 54.66 53.08 54.07 53.93 51.92 51.91 50.50 48.18 47.69 51.48 49.07 46.10 47.26 44.05 49.73 51.90 52.79 53.02 48.34 55.43 58.32 57.92 58.15 59.00 59.76 60.23 61.50
52.54 52.58 51.85 52.06 52.33 52.83 53.63 53.47 54.18 55.66 55.61 55.05 54.36 51.66 45.06 53.86 49.75 52.53 53.52 50.49 52.19 52.22 52.47 51.69 50.01 46.52 46.23 43.63 43.05 45.45 41.10 43.66 46.07 51.18 51.11 50.26 48.58 54.11 56.64 56.89 56.85 58.00 58.73 59.25 60.38
52.10 52.10 51.22 51.51 52.06 52.66 52.61 53.71 55.89 55.73 55.39 55.20 54.34 48.23 48.30 46.02 50.44 51.38 52.81 52.17 49.72 49.72 48.26 48.04 46.85 43.87 43.82 41.44 36.41 39.89 41.95 43.42 43.53 48.36 50.03 49.03 48.61 52.26 54.66 55.57 55.88 56.92 57.88 58.50 59.28
51.30 51.51 51.72 51.37 51.89 52.19 53.26 54.01 51.00 48.89 50.09 45.85 46.05 45.31 46.78 50.61 52.06 49.60 51.32 49.42 49.41 47.20 42.29 45.90 41.59 39.29 41.53 42.94 42.67 42.47 42.36 42.77 45.81 48.46 47.59 47.95 48.56 50.69 53.54 54.10 54.58 55.66 56.58 57.64 58.43
51.26 51.05 50.99 51.22 51.71 51.93 53.32 49.64 48.42 49.65 43.85 48.08 47.88 47.61 49.25 49.80 44.88 47.42 50.69 45.08 44.82 41.12 44.11 41.83 38.71 42.72 43.62 42.30 41.28 41.14 40.19 41.25 45.26 46.90 47.33 47.12 47.24 50.50 52.21 53.12 54.43 55.14 55.97 56.98 58.01
51.25 50.72 50.86 51.01 51.53 53.34 51.78 50.17 54.17 52.90 44.83 43.96 46.91 46.14 46.69 48.30 44.32 44.89 47.62 45.81 43.32 40.93 41.04 38.88 40.76 43.39 41.33 40.36 38.63 39.33 38.65 39.93 40.92 45.09 47.20 46.10 44.79 47.60 51.30 53.19 54.09 54.92 55.86 56.47 56.85
51.37 50.55 50.93 50.60 49.80 53.91 51.04 53.37 54.60 53.27 40.71 39.27 42.84 45.75 46.88 47.70 43.01 48.24 48.80 45.92 42.83 39.83 40.82 40.47 43.04 40.75 40.12 39.34 40.39 36.24 41.40 40.87 40.73 40.90 37.54 46.00 37.10 45.47 48.65 49.75 51.61 53.06 54.45 55.31 56.38
51.47 51.00 50.80 49.98 51.67 52.07 51.99 54.86 54.35 50.90 30.23 39.94 42.44 49.51 47.67 44.04 44.07 43.96 48.67 46.85 40.53 40.35 41.21 38.59 40.12 40.16 39.01 39.76 41.73 38.55 41.89 40.40 41.29 39.81 40.68 40.95 38.98 43.46 48.22 47.07 49.70 52.33 53.56 54.86 55.79
51.31 51.18 49.93 50.18 53.05 53.46 54.86 54.28 51.02 38.14 26.92 37.46 42.41 41.89 42.28 43.65 42.85 43.98 44.29 47.24 46.17 42.03 43.32 41.64 45.71 43.61 42.31 43.26 43.24 42.92 40.06 40.21 40.43 39.55 33.81 39.59 39.81 40.77 44.18 46.87 49.20 51.72 52.97 54.02 54.73
51.08 49.84 51.04 53.79 51.17 55.08 55.35 50.02 37.93 32.22 39.78 36.80 38.07 41.75 41.02 39.56 40.25 40.75 40.30 40.13 38.35 34.63 35.73 40.06 40.66 43.74 44.02 40.13 43.14 40.73 36.77 30.38 29.57 30.88 30.38 40.29 38.42 41.10 47.02 48.64 49.42 50.21 51.34 53.73 55.66
50.13 47.97 50.29 54.64 56.32 54.71 52.31 42.60 30.27 35.26 36.05 41.52 40.68 40.85 37.45 39.13 39.47 39.63 38.47 37.37 41.16 39.79 36.46 33.04 30.99 38.25 40.29 39.72 38.10 38.08 36.45 31.27 24.31 28.92 32.46 38.87 35.14 40.61 47.72 49.76 50.81 51.35 53.05 53.90 55.79
48.86 55.10 55.15 55.19 56.14 54.45 47.09 36.06 35.82 36.22 38.85 38.07 39.52 36.28 36.53 38.19 38.44 38.34 38.35 36.87 39.40 41.22 33.12 32.85 32.86 41.20 41.80 43.55 42.53 37.90 33.47 40.42 33.22 34.45 32.76 37.17 40.12 44.33 47.29 48.23 49.62 50.82 51.62 54.70 57.28
50.75 53.25 52.93 54.30 55.26 51.88 43.16 34.30 37.48 40.28 40.66 40.27 34.32 36.55 34.10 37.05 36.70 37.02 36.56 39.06 38.55 41.10 42.79 37.92 30.37 39.28 39.33 41.78 43.04 40.50 41.71 33.44 34.89 25.34 26.49 35.23 37.01 38.24 43.91 45.58 47.94 50.22 51.43 53.51 57.09
50.86 48.23 51.36 53.71 53.54 47.36 38.11 37.07 38.42 41.77 41.86 38.68 37.26 35.82 36.67 35.89 37.01 36.29 35.81 39.66 40.97 40.66 42.79 40.07 36.16 35.63 40.35 36.58 35.20 38.22 36.93 36.87 35.67 35.34 28.25 31.70 36.57 45.88 46.66 48.73 49.11 50.06 51.89 53.80 58.69
48.39 43.71 52.60 53.38 43.62 44.74 38.29 38.09 38.89 40.19 43.14 41.02 41.04 39.54 37.47 37.83 35.13 36.01 35.63 38.27 43.18 42.38 37.83 41.53 37.25 32.27 35.02 41.05 42.37 39.69 36.25 34.63 31.84 30.42 35.93 33.75 37.08 48.85 49.44 49.73 49.89 50.48 51.68 53.89 58.52
43.21 44.83 53.28 50.33 38.19 37.87 38.65 37.97 39.33 39.45 40.11 39.17 38.05 40.09 41.01 37.02 32.71 36.97 38.43 42.37 42.78 41.21 38.61 40.74 36.06 29.97 31.78 37.80 40.85 37.57 37.59 39.24 38.46 38.82 33.17 31.50 36.82 49.08 49.09 48.34 49.78 50.21 51.58 52.94 54.52
42.77 40.01 46.48 47.71 44.44 37.99 36.77 36.64 36.63 41.13 40.55 40.63 39.84 40.31 39.17 38.04 39.78 35.25 37.01 40.13 42.02 41.86 42.70 41.26 37.19 31.85 29.13 33.26 37.11 34.72 36.84 38.62 37.99 33.24 34.28 35.41 38.54 43.90 46.54 47.23 49.03 50.18 51.86 52.34 53.44
44.39 40.82 42.24 39.10 41.21 40.17 39.84 37.59 35.48 35.70 40.60 41.90 38.54 38.33 36.53 33.43 36.40 35.66 37.53 39.31 41.12 42.28 41.65 38.15 33.52 36.20 36.61 38.10 37.88 36.85 36.16 37.15 36.56 37.72 34.49 37.46 38.39 42.99 45.86 47.15 48.90 50.59 50.77 51.08 52.36
40.70 39.50 42.07 40.64 40.55 39.05 37.63 36.86 35.37 36.79 38.00 36.48 35.65 38.63 37.84 34.56 35.20 32.99 36.37 37.02 36.53 40.68 39.03 40.33 34.76 36.59 34.39 37.73 38.03 35.73 37.72 38.04 37.94 38.22 38.30 39.03 38.80 45.11 46.55 47.33 47.32 48.26 49.78 50.50 52.53
42.63 45.00 38.63 38.02 38.91 36.82 36.68 36.79 36.81 38.31 39.19 40.57 38.79 37.50 37.07 38.63 41.73 42.54 41.98 41.11 39.55 37.27 35.92 36.53 34.87 33.49 30.29 36.09 36.08 31.78 36.73 38.32 38.83 40.42 39.89 36.72 41.91 46.21 45.71 45.87 47.29 48.50 49.83 51.36 53.41

GFSSW_sfc_wetblb_045.txt.gz
Wetbulb
53.98 54.16 54.38 54.35 54.51 54.50 54.58 54.66 54.96 55.19 55.61 55.78 55.87 55.81 55.61 55.46 55.12 56.47 52.31 54.01 56.05 60.91 59.65 54.14 55.07 55.08 59.75 58.20 60.65 60.52 53.01 50.48 51.59 51.37 51.73 54.83 53.73 55.94 59.15 58.04 59.30 62.11 62.93 64.57 67.62
53.82 54.09 54.21 54.16 54.17 54.22 54.42 54.64 55.15 55.38 55.68 55.80 55.77 55.58 55.54 55.13 55.17 52.29 56.81 57.06 58.22 60.23 54.58 52.18 51.64 53.17 55.47 56.55 58.43 56.69 53.08 52.35 55.08 54.91 53.32 54.28 54.52 55.17 55.44 56.40 58.13 61.75 63.90 64.19 66.34
53.42 53.67 53.89 53.92 54.06 54.17 54.47 54.73 55.25 55.62 55.67 55.60 55.55 55.40 55.30 55.19 52.80 53.20 58.23 57.31 58.88 59.00 55.25 53.68 53.91 52.45 50.94 55.49 55.38 55.79 53.08 55.96 56.07 56.68 56.66 54.98 54.04 56.06 54.84 54.75 58.52 59.86 62.74 63.85 64.04
53.39 53.59 53.63 53.68 53.96 54.01 54.30 54.72 55.20 55.72 55.68 55.69 55.29 55.29 55.13 55.91 43.91 53.99 57.05 57.69 58.66 57.91 53.57 54.19 52.88 50.60 48.28 48.96 55.25 52.83 55.10 56.19 57.08 57.46 57.37 55.13 55.08 54.03 55.39 56.61 59.05 61.12 63.86 63.56 63.18
53.21 53.24 53.24 53.22 53.47 53.69 54.18 54.53 55.02 55.33 55.32 55.39 55.94 55.07 55.61 51.69 49.33 55.58 56.92 59.19 57.36 54.03 51.13 50.13 50.04 51.14 48.49 49.48 50.92 51.36 53.85 55.42 56.37 57.03 57.56 58.08 55.47 54.41 55.18 57.88 59.42 59.33 62.18 62.96 63.26
52.78 52.85 53.07 53.21 53.32 53.56 53.99 54.37 54.72 54.68 55.21 55.75 56.56 54.81 54.80 47.15 54.03 55.69 55.63 55.38 55.38 53.80 52.22 51.20 48.77 51.59 50.26 50.19 49.71 51.65 52.26 52.72 54.28 55.11 56.09 55.77 56.03 56.52 57.44 59.01 58.67 58.92 58.59 60.62 62.26
53.07 52.54 52.71 52.85 52.93 53.20 53.78 54.31 54.45 54.41 55.27 56.60 56.31 56.43 53.90 48.34 54.95 55.88 55.67 54.47 55.11 53.73 51.01 52.88 52.00 48.98 50.45 49.28 52.23 51.25 48.45 50.14 51.76 53.52 53.21 56.03 53.02 54.00 58.34 59.22 58.88 59.19 59.97 60.93 62.44
53.06 52.79 52.27 52.31 52.73 53.01 53.57 54.02 53.88 54.85 56.08 57.08 55.75 56.94 49.95 53.42 55.46 53.31 54.43 53.31 54.41 54.69 53.70 53.88 53.48 50.03 48.00 49.02 47.88 47.30 48.61 44.96 49.82 51.31 52.76 52.17 48.45 54.91 57.98 58.46 58.39 59.42 60.23 60.93 62.36
52.81 52.47 52.01 52.20 52.43 52.89 53.24 53.45 54.64 55.97 56.24 56.04 56.04 55.30 48.75 54.88 50.56 52.82 53.51 50.56 51.62 52.73 53.02 53.21 52.09 48.76 48.20 43.91 41.90 44.05 41.61 44.70 46.33 50.91 50.55 49.73 48.92 53.75 56.74 57.61 57.77 59.21 60.04 60.60 61.60
52.72 52.35 52.16 51.82 52.37 52.80 52.91 52.53 56.10 55.40 56.49 57.49 55.86 50.19 50.83 47.30 51.14 51.81 53.34 52.30 49.93 50.44 49.75 49.32 48.94 45.95 45.97 43.32 37.09 40.13 41.36 43.42 44.09 48.34 49.74 48.50 49.34 52.45 54.77 55.62 56.90 57.89 59.03 59.77 60.71
52.47 52.45 52.18 52.18 52.20 52.56 53.23 56.32 52.80 52.18 53.02 48.20 48.28 47.07 47.79 51.38 52.61 50.49 51.87 50.12 50.28 48.90 44.51 47.37 43.35 41.94 44.30 45.44 44.98 43.83 42.25 41.61 45.06 48.59 48.29 47.70 48.76 51.06 53.55 54.11 54.36 56.53 58.14 59.84 60.58
52.49 51.85 51.87 51.59 52.01 52.37 54.02 51.42 50.58 51.83 45.42 50.63 49.38 48.49 50.02 51.02 46.31 48.64 51.18 46.57 46.01 42.81 45.37 43.89 40.94 44.81 45.21 44.74 43.34 42.43 40.75 41.18 44.25 46.45 47.31 47.91 47.52 50.40 52.39 53.70 54.69 55.44 56.65 58.11 59.45
51.60 52.08 51.60 51.78 52.06 53.02 53.40 52.06 55.66 54.87 46.77 47.05 48.45 47.95 48.32 49.29 46.08 46.85 48.93 46.92 44.09 42.20 42.73 40.68 42.55 44.98 43.40 42.15 40.97 41.56 40.20 40.35 40.75 44.63 46.81 46.31 45.06 47.67 51.51 53.05 54.18 55.61 56.63 57.69 58.53
52.13 51.62 51.77 51.27 50.11 55.83 53.04 55.19 56.26 55.26 42.74 42.93 45.01 47.54 48.27 48.79 45.45 49.42 49.77 46.77 44.66 41.67 42.32 41.67 44.13 42.59 41.71 40.41 41.80 38.33 43.66 42.28 40.93 39.97 36.62 45.19 38.12 45.92 49.08 50.43 52.69 54.25 55.79 56.63 57.81
52.11 51.92 51.26 49.56 55.00 53.62 53.99 56.91 56.16 53.67 33.85 42.97 44.61 51.04 48.79 45.79 46.42 46.16 49.13 46.89 42.13 42.03 42.20 39.66 41.07 40.98 40.33 41.27 43.63 40.64 43.80 42.25 41.88 39.75 39.46 40.03 38.85 43.26 48.49 48.16 50.43 53.13 54.58 55.85 57.09
51.90 51.49 50.63 51.78 55.90 55.29 56.83 56.51 53.68 41.71 31.86 40.37 44.49 43.64 44.36 45.93 45.40 46.55 46.19 48.18 47.14 43.08 43.82 42.82 46.48 44.76 43.17 44.32 45.03 44.75 42.28 42.23 41.56 39.54 33.30 38.40 38.90 40.27 44.44 47.50 50.30 52.93 54.37 55.56 56.50
51.86 50.82 51.79 56.30 54.41 56.87 56.96 52.30 41.12 35.92 42.78 39.87 40.84 43.83 43.29 42.58 42.32 42.64 42.31 41.73 40.03 36.65 37.15 40.84 41.79 42.68 45.24 41.47 45.12 43.07 38.66 31.46 29.83 31.79 31.20 39.94 37.80 41.20 47.12 49.73 51.02 51.58 53.38 55.23 56.25
50.95 49.58 52.77 56.66 58.70 57.29 54.51 46.22 32.45 38.97 39.27 43.83 42.87 43.12 40.57 41.60 41.58 41.72 41.40 39.78 42.24 40.79 38.14 34.50 32.43 40.31 43.68 41.66 39.65 39.23 39.53 31.91 24.14 27.63 31.36 39.62 35.34 39.69 48.77 51.20 52.49 52.75 53.30 54.69 55.38
49.58 55.92 56.00 57.88 58.37 55.99 48.62 39.64 39.45 40.14 40.83 40.29 42.09 39.82 39.64 40.98 41.18 41.46 40.77 39.49 41.33 42.34 35.98 34.55 34.39 42.70 44.01 44.58 43.51 40.18 37.85 41.38 33.17 35.58 30.63 34.66 39.37 45.31 47.22 49.01 50.69 51.68 53.21 54.09 56.46
50.73 53.22 55.00 56.87 58.06 53.05 45.72 39.54 40.82 42.61 42.42 42.42 37.68 39.76 37.13 39.49 39.34 40.05 39.37 41.55 39.88 43.02 43.85 39.67 32.96 40.61 42.65 44.79 44.74 42.40 43.48 34.14 35.97 26.98 25.61 33.62 37.06 38.13 43.38 45.64 49.56 50.98 52.46 54.32 56.04
52.13 48.50 53.87 57.98 55.56 48.62 41.11 41.25 41.20 43.56 43.17 40.77 40.23 39.11 39.72 38.83 39.86 38.99 39.13 41.90 43.14 42.30 43.94 41.80 38.26 37.26 40.89 39.53 38.77 39.58 38.52 37.92 38.04 35.25 29.08 27.75 34.46 44.79 46.45 47.10 48.92 51.19 53.02 54.04 57.75
50.53 45.22 55.00 54.69 45.56 47.27 42.24 40.81 40.82 42.41 45.05 42.86 43.80 41.33 38.98 39.52 38.17 38.62 38.03 40.72 44.89 43.80 38.49 42.40 38.42 33.70 36.24 42.61 44.75 43.08 40.23 38.81 31.36 29.82 36.12 34.28 34.26 47.01 46.10 51.45 50.42 52.39 52.58 54.53 55.94
46.73 47.31 54.59 52.62 41.59 42.47 44.66 42.53 42.00 41.72 43.12 41.83 40.13 41.80 42.60 39.01 35.54 39.80 40.26 44.41 44.64 43.24 39.16 41.77 36.71 30.81 33.87 38.50 40.66 37.83 40.62 40.10 40.00 37.86 33.80 29.25 32.30 46.52 49.28 51.05 51.83 51.73 52.75 53.85 55.05
47.18 42.96 48.16 50.46 47.10 41.51 41.19 41.72 39.59 43.20 42.23 43.29 41.70 42.81 40.98 39.56 41.35 38.53 39.19 42.28 44.24 43.60 44.21 43.18 38.31 32.98 30.17 33.68 35.42 33.13 37.20 40.10 39.03 34.31 35.10 34.57 36.55 39.04 41.30 45.38 50.06 51.25 52.97 52.79 54.00
48.48 45.13 45.08 41.27 42.44 42.42 42.88 42.39 39.30 39.05 42.73 43.84 40.60 39.78 38.28 35.60 38.45 36.79 40.55 41.24 43.10 44.43 43.87 39.96 34.87 37.26 38.29 39.33 38.53 38.06 38.21 38.44 37.21 38.35 35.14 37.29 37.07 40.50 42.96 45.32 48.45 51.06 51.66 51.18 52.94
44.29 43.31 45.11 42.04 44.51 41.95 40.07 40.63 39.40 40.05 40.99 39.46 39.32 40.30 38.65 36.74 37.39 35.56 38.48 38.75 38.25 43.38 41.66 41.70 34.61 37.70 35.63 39.05 39.19 37.57 39.51 39.55 39.39 39.51 39.31 39.13 38.66 43.87 46.01 47.89 48.20 49.33 49.80 50.34 52.54
45.74 45.12 41.23 40.88 42.22 41.30 40.62 38.88 38.74 39.06 40.70 42.83 41.75 39.69 39.97 41.93 44.41 44.97 44.35 44.35 42.57 39.59 38.99 36.99 35.86 34.32 30.56 37.82 38.24 34.11 38.66 39.39 39.77 41.70 40.68 37.47 41.68 45.52 45.63 47.00 48.71 49.95 50.29 50.61 51.94

GFSSW_sfc_wetblb_048.txt.gz
Wetbulb
54.40 54.28 54.54 54.63 54.66 54.66 54.84 55.02 55.39 55.79 56.23 56.38 56.44 56.44 56.60 56.43 56.16 55.02 51.94 54.00 55.73 61.83 60.19 53.06 52.43 54.17 54.94 55.16 57.94 58.54 51.67 49.09 50.21 50.60 52.10 55.55 53.72 56.04 56.91 55.17 56.55 58.93 60.24 64.25 67.63
53.73 54.12 54.15 54.37 54.38 54.45 54.52 54.89 55.46 55.93 56.20 56.53 56.53 56.37 56.28 56.14 53.41 52.46 55.44 57.35 59.81 60.56 53.82 51.83 49.86 52.01 50.58 52.76 54.83 53.50 50.70 51.35 54.72 54.85 53.82 55.12 55.12 55.37 54.79 54.57 55.82 57.71 61.36 64.63 66.49
53.75 54.08 53.97 54.21 54.20 54.27 54.34 54.73 55.26 55.84 56.11 56.27 56.37 56.35 56.11 55.54 52.61 52.06 59.08 58.09 60.00 59.17 54.68 54.40 52.44 51.29 49.13 51.17 52.55 52.85 50.48 54.56 55.38 56.46 56.64 55.08 55.28 56.87 54.02 52.69 55.20 57.20 59.99 63.79 64.30
53.69 53.82 54.02 53.92 54.10 54.09 54.33 54.70 55.18 55.76 56.00 56.21 56.35 56.70 56.73 54.34 44.79 55.86 60.29 59.08 60.85 57.49 54.79 52.09 51.45 48.58 47.86 47.53 50.60 49.52 53.16 54.67 55.85 57.24 56.68 55.61 57.24 55.44 55.53 54.99 57.55 58.37 61.22 63.21 63.71
53.49 53.42 53.58 53.66 53.80 53.98 54.02 54.49 54.85 55.18 55.34 55.73 56.27 57.09 55.38 53.38 50.32 56.60 61.78 60.12 58.13 56.59 52.20 50.20 48.69 49.63 47.32 48.38 49.78 47.95 50.48 53.40 55.06 55.59 55.96 56.67 55.80 56.11 55.78 57.82 58.76 58.68 59.45 60.24 63.86
52.84 52.97 53.01 53.10 53.19 53.50 53.96 54.21 54.39 54.53 54.80 55.59 56.52 57.12 53.99 49.53 54.13 55.54 55.93 55.52 55.01 53.56 52.42 51.93 49.64 49.66 47.14 47.62 48.31 50.16 49.96 50.12 51.58 52.85 55.28 54.12 54.48 56.36 57.64 59.67 58.65 58.52 58.53 59.32 63.19
53.33 52.97 52.67 52.71 52.95 53.29 54.04 54.06 54.16 54.69 55.13 56.03 57.05 56.14 53.51 50.35 54.60 55.36 55.05 53.52 54.68 53.79 50.85 52.51 52.36 49.46 48.73 45.79 49.55 49.76 47.08 49.29 50.05 50.65 50.98 52.92 50.54 52.26 57.07 58.89 58.43 58.80 59.08 59.29 60.30
53.70 53.30 52.78 52.73 52.79 53.14 53.84 54.18 54.00 54.68 56.42 56.69 57.53 55.46 51.91 53.53 54.85 53.13 53.62 52.82 53.86 53.11 52.46 53.48 52.96 49.94 47.91 48.66 46.37 44.21 45.51 42.70 48.48 49.74 50.87 50.06 45.55 52.53 55.46 56.61 56.99 58.26 59.29 60.07 60.33
53.84 53.51 53.13 52.82 52.70 52.99 53.61 53.53 53.94 55.87 57.20 56.93 55.31 54.84 50.02 55.22 51.29 52.95 53.18 50.52 51.47 52.27 52.73 52.45 51.18 47.86 47.73 43.83 41.60 42.90 38.07 40.80 43.73 49.53 49.45 48.88 46.44 52.36 55.11 54.89 55.45 57.51 58.79 59.70 60.74
53.26 52.74 52.43 52.47 52.60 53.01 52.95 52.98 55.73 55.74 56.55 57.78 56.00 49.85 52.24 48.16 51.60 51.89 53.52 52.15 49.69 49.90 49.84 49.88 48.01 45.36 45.55 42.87 36.05 39.13 40.08 41.42 41.06 45.10 46.88 47.07 47.71 51.13 52.95 52.78 54.38 55.73 57.57 59.38 59.86
53.05 52.22 52.03 52.10 52.84 52.66 52.71 56.08 52.15 51.81 54.29 49.94 48.32 48.62 48.86 51.49 52.96 50.33 51.92 50.10 49.90 48.25 43.70 47.26 42.79 40.94 43.67 45.42 45.15 43.85 42.00 41.28 43.94 46.43 45.12 45.01 46.88 49.63 52.89 52.73 52.31 54.11 56.06 57.94 59.57
52.51 52.84 52.64 52.62 52.75 52.85 52.27 52.59 50.91 52.00 45.40 50.69 49.80 49.74 50.33 50.91 46.63 49.37 51.66 46.34 45.61 41.97 44.98 43.41 40.47 44.74 45.64 45.11 43.45 42.35 40.58 40.21 43.15 45.27 44.54 44.23 44.11 48.04 51.17 51.93 53.92 54.03 54.40 56.18 58.37
52.50 52.71 52.89 52.56 52.64 52.24 54.46 52.54 55.50 55.02 45.75 48.38 49.16 48.08 49.09 49.95 46.40 47.38 49.40 47.06 43.80 42.00 42.45 40.26 42.29 44.87 43.46 42.14 41.01 41.16 39.67 39.86 39.88 43.17 44.19 42.64 41.62 45.49 48.78 51.66 53.40 54.45 56.01 56.95 56.82
52.31 52.54 52.55 51.98 49.97 54.55 53.72 55.92 56.12 55.51 41.23 44.04 44.98 47.85 48.68 48.72 45.53 50.16 50.16 46.48 43.60 41.04 42.35 41.71 43.81 42.26 41.45 40.56 41.67 37.57 42.59 41.83 40.82 39.55 35.29 42.88 34.44 42.89 46.32 48.32 51.42 52.64 53.98 55.89 57.19
51.97 52.48 52.31 50.68 52.94 53.75 53.90 56.52 55.74 53.24 32.78 44.45 45.49 51.71 48.84 46.06 46.74 47.76 50.40 46.48 41.44 41.65 42.15 39.82 41.39 41.35 40.42 41.41 43.60 40.22 43.85 42.03 41.44 39.69 38.51 38.57 35.99 39.70 44.73 44.81 48.67 52.29 53.77 55.26 57.57
51.76 52.13 51.91 53.76 54.05 55.63 56.10 56.25 54.72 41.04 32.42 41.39 45.30 44.29 44.53 46.43 46.33 47.18 46.83 48.43 47.13 42.67 43.39 42.70 46.23 44.31 43.48 44.79 44.25 44.89 41.74 41.12 41.13 39.35 32.28 37.14 36.73 37.57 41.10 44.51 47.13 51.46 53.88 55.22 56.46
51.46 51.76 50.45 54.70 52.79 56.81 56.27 52.68 40.57 36.15 44.00 40.84 41.68 43.89 43.55 43.15 43.29 43.66 42.40 42.15 39.76 36.70 36.92 40.67 41.04 44.37 45.39 40.96 43.78 42.09 38.27 30.58 29.79 30.60 30.54 38.70 36.15 39.25 44.24 46.30 48.12 49.48 52.54 54.84 56.72
50.20 49.99 52.92 54.57 57.22 57.10 53.14 45.64 34.47 40.87 41.23 44.14 42.76 43.09 41.33 42.95 42.14 42.41 41.74 39.99 43.37 41.27 37.75 34.58 32.27 40.28 43.97 41.14 38.32 39.62 38.25 30.25 23.89 26.59 30.64 38.11 32.69 38.46 46.11 48.63 49.81 50.83 53.26 54.39 55.45
49.17 55.82 54.68 56.19 57.42 55.87 47.44 38.38 38.91 40.45 42.73 40.59 41.72 40.69 40.37 42.27 41.83 41.71 41.38 40.28 41.91 42.09 35.84 34.26 34.18 42.25 42.79 43.19 42.92 38.96 35.66 40.21 32.32 33.69 31.68 34.69 37.70 42.51 45.46 46.89 48.75 49.70 51.60 54.23 55.63
50.01 52.58 53.61 58.19 57.65 53.15 44.10 39.39 42.81 44.38 43.32 42.53 37.23 41.43 37.79 39.86 39.78 40.27 39.86 42.99 41.67 44.01 44.75 39.71 32.72 40.48 41.93 43.35 43.28 41.36 43.59 34.93 36.19 24.63 23.96 31.70 33.35 35.30 42.24 44.92 47.61 48.79 51.83 53.71 55.92
51.50 49.78 55.13 57.93 55.70 48.20 40.54 42.29 43.30 44.71 43.47 40.14 40.09 39.32 40.06 38.88 39.98 38.77 39.18 42.60 44.54 43.67 44.93 41.58 37.80 36.55 40.64 38.23 37.09 38.68 38.01 38.67 35.49 33.94 27.22 26.46 31.81 43.30 42.85 43.86 43.54 46.23 51.47 54.35 54.95
50.67 44.45 55.96 54.93 44.76 47.36 42.04 43.25 43.15 43.03 45.49 43.94 43.93 42.23 39.67 40.16 39.04 38.32 38.16 41.30 45.56 44.61 39.27 42.40 38.24 32.21 35.49 41.84 43.48 40.64 38.85 37.49 32.78 30.48 34.48 32.91 33.44 45.20 43.00 43.55 44.98 43.36 51.46 54.15 55.59
47.63 48.63 55.43 53.53 41.80 41.78 44.24 44.00 44.97 42.53 43.01 42.28 41.56 42.87 43.27 39.65 36.36 39.11 40.93 45.27 45.43 43.87 40.32 41.45 36.17 29.53 31.96 37.69 39.70 36.57 38.25 39.41 39.65 38.35 32.80 29.19 31.86 44.89 43.03 42.76 44.98 44.66 47.40 53.04 53.91
48.13 44.14 49.23 49.88 49.17 44.15 41.95 41.29 41.62 45.57 43.05 43.45 42.35 43.07 41.23 39.51 41.37 38.33 39.62 43.32 45.13 43.99 45.93 43.99 37.71 33.43 28.76 32.57 36.52 32.50 36.54 39.13 38.46 33.83 33.75 33.99 35.22 40.48 39.79 42.01 43.21 44.81 48.18 52.37 52.72
49.43 45.29 46.44 41.29 42.12 42.72 44.01 42.41 40.43 39.88 44.03 44.20 41.74 41.11 39.64 36.20 37.91 37.23 40.20 41.84 43.74 45.36 43.61 41.44 34.93 36.25 36.91 38.22 38.53 37.55 37.32 38.15 37.15 37.66 33.65 35.76 36.35 39.63 41.91 42.16 43.01 45.53 47.85 50.37 51.11
44.01 41.94 44.21 42.00 44.95 42.94 42.43 41.52 40.08 41.42 41.34 39.84 38.79 40.96 41.20 37.68 38.23 36.79 40.12 40.36 39.82 43.29 41.24 42.50 34.91 37.24 34.74 38.27 37.49 36.02 38.33 38.62 38.74 38.93 38.42 38.53 37.81 44.01 45.43 45.88 45.94 47.18 48.86 49.21 50.40
48.64 47.94 42.50 40.49 43.29 41.66 41.19 41.40 40.22 41.50 41.54 43.12 41.28 39.63 38.73 41.29 44.05 44.79 44.90 44.26 43.23 40.82 39.85 38.10 36.86 34.14 30.08 36.79 36.62 32.72 37.81 38.75 39.88 41.34 39.94 36.18 40.53 45.56 45.70 45.69 47.00 48.69 49.27 50.28 51.03